Observation data for Hackberry on 11/17/2019      Previous  Date       Current Mesonet Observations  Soil Data  Daily Summary Page  Observations in Plain Language
KHA3 170600Z 18006KT 10/04 A2998 RMK A01 T00960040  RH  068%=      5-min Rain = 0
KHA3 170601Z 18006KT 10/04 A2998 RMK A01 T00950040  RH  068%=      5-min Rain = 0
KHA3 170602Z 18006KT 09/04 A2998 RMK A01 T00940040  RH  069%=      5-min Rain = 0
KHA3 170603Z 18006KT 09/04 A2998 RMK A01 T00930040  RH  069%=      5-min Rain = 0
KHA3 170604Z 18006KT 09/04 A2998 RMK A01 T00930040  RH  070%=      5-min Rain = 0
KHA3 170605Z 18006KT 09/04 A2998 RMK A01 T00930041  RH  070%=      5-min Rain = 0
KHA3 170606Z 18007KT 09/04 A2998 RMK A01 T00940041  RH  070%=      5-min Rain = 0
KHA3 170607Z 18007KT 09/04 A2998 RMK A01 T00940041  RH  070%=      5-min Rain = 0
KHA3 170608Z 18007KT 10/04 A2997 RMK A01 T00960042  RH  069%=      5-min Rain = 0
KHA3 170609Z 18007KT 10/04 A2997 RMK A01 T00960042  RH  069%=      5-min Rain = 0
KHA3 170610Z 18007KT 10/04 A2997 RMK A01 T00970043  RH  069%=      5-min Rain = 0
KHA3 170611Z 18007KT 10/04 A2998 RMK A01 T00970043  RH  069%=      5-min Rain = 0
KHA3 170612Z 18007KT 10/04 A2998 RMK A01 T00980043  RH  069%=      5-min Rain = 0
KHA3 170613Z 18008KT 10/04 A2998 RMK A01 T00980043  RH  069%=      5-min Rain = 0
KHA3 170614Z 18008KT 10/04 A2998 RMK A01 T00980043  RH  068%=      5-min Rain = 0
KHA3 170615Z 18008KT 10/04 A2998 RMK A01 T00990043  RH  068%=      5-min Rain = 0
KHA3 170616Z 18009KT 10/04 A2998 RMK A01 T00990043  RH  068%=      5-min Rain = 0
KHA3 170617Z 18009KT 10/04 A2997 RMK A01 T01000043  RH  068%=      5-min Rain = 0
KHA3 170618Z 18009KT 10/04 A2997 RMK A01 T01000043  RH  068%=      5-min Rain = 0
KHA3 170619Z 18008KT 10/04 A2997 RMK A01 T01000043  RH  068%=      5-min Rain = 0
KHA3 170620Z 18009KT 10/04 A2997 RMK A01 T01000044  RH  068%=      5-min Rain = 0
KHA3 170621Z 18009KT 10/04 A2997 RMK A01 T01000043  RH  068%=      5-min Rain = 0
KHA3 170622Z 18009KT 10/04 A2997 RMK A01 T01010043  RH  068%=      5-min Rain = 0
KHA3 170623Z 18009KT 10/04 A2997 RMK A01 T01010043  RH  067%=      5-min Rain = 0
KHA3 170624Z 18009KT 10/04 A2997 RMK A01 T01010044  RH  067%=      5-min Rain = 0
KHA3 170625Z 17009KT 10/04 A2997 RMK A01 T01010044  RH  068%=      5-min Rain = 0
KHA3 170626Z 17009KT 10/04 A2996 RMK A01 T01010044  RH  068%=      5-min Rain = 0
KHA3 170627Z 17009KT 10/04 A2996 RMK A01 T01000044  RH  068%=      5-min Rain = 0
KHA3 170628Z 17009KT 10/04 A2996 RMK A01 T01010044  RH  068%=      5-min Rain = 0
KHA3 170629Z 17009KT 10/04 A2996 RMK A01 T01000044  RH  068%=      5-min Rain = 0
KHA3 170630Z 18009KT 10/04 A2996 RMK A01 T01010044  RH  068%=      5-min Rain = 0
KHA3 170631Z 18009KT 10/04 A2996 RMK A01 T01010044  RH  068%=      5-min Rain = 0
KHA3 170632Z 17009KT 10/04 A2997 RMK A01 T01010044  RH  068%=      5-min Rain = 0
KHA3 170633Z 18009KT 10/04 A2997 RMK A01 T01010044  RH  068%=      5-min Rain = 0
KHA3 170634Z 17009KT 10/04 A2997 RMK A01 T01010044  RH  068%=      5-min Rain = 0
KHA3 170635Z 18009KT 10/04 A2997 RMK A01 T01010044  RH  068%=      5-min Rain = 0
KHA3 170636Z 18009KT 10/04 A2997 RMK A01 T01010044  RH  068%=      5-min Rain = 0
KHA3 170637Z 17009KT 10/04 A2997 RMK A01 T01010044  RH  068%=      5-min Rain = 0
KHA3 170638Z 18009KT 10/04 A2997 RMK A01 T01010044  RH  068%=      5-min Rain = 0
KHA3 170639Z 18009KT 10/04 A2997 RMK A01 T01010044  RH  068%=      5-min Rain = 0
KHA3 170640Z 18009KT 10/04 A2997 RMK A01 T01010044  RH  068%=      5-min Rain = 0
KHA3 170641Z 17008KT 10/04 A2997 RMK A01 T01010044  RH  068%=      5-min Rain = 0
KHA3 170642Z 17008KT 10/04 A2997 RMK A01 T01010044  RH  068%=      5-min Rain = 0
KHA3 170643Z 18008KT 10/04 A2997 RMK A01 T01010044  RH  068%=      5-min Rain = 0
KHA3 170644Z 17008KT 10/04 A2997 RMK A01 T01000044  RH  068%=      5-min Rain = 0
KHA3 170645Z 17008KT 10/04 A2997 RMK A01 T01000044  RH  068%=      5-min Rain = 0
KHA3 170646Z 17008KT 10/04 A2997 RMK A01 T00990043  RH  068%=      5-min Rain = 0
KHA3 170647Z 17009KT 10/04 A2997 RMK A01 T00990044  RH  068%=      5-min Rain = 0
KHA3 170648Z 17008KT 10/04 A2996 RMK A01 T01000044  RH  068%=      5-min Rain = 0
KHA3 170649Z 17008KT 10/04 A2996 RMK A01 T01000044  RH  068%=      5-min Rain = 0
KHA3 170650Z 17009KT 10/04 A2996 RMK A01 T01000044  RH  068%=      5-min Rain = 0
KHA3 170651Z 17009KT 10/04 A2996 RMK A01 T00990044  RH  068%=      5-min Rain = 0
KHA3 170652Z 18009KT 10/04 A2996 RMK A01 T01000044  RH  068%=      5-min Rain = 0
KHA3 170653Z 17010KT 10/04 A2996 RMK A01 T00990044  RH  068%=      5-min Rain = 0
KHA3 170654Z 17009KT 10/04 A2997 RMK A01 T01000044  RH  068%=      5-min Rain = 0
KHA3 170655Z 18010KT 10/04 A2997 RMK A01 T01000044  RH  068%=      5-min Rain = 0
KHA3 170656Z 17009KT 10/04 A2997 RMK A01 T01000044  RH  068%=      5-min Rain = 0
KHA3 170657Z 18010KT 10/04 A2997 RMK A01 T01010044  RH  068%=      5-min Rain = 0
KHA3 170658Z 17009KT 10/04 A2997 RMK A01 T01010044  RH  068%=      5-min Rain = 0
KHA3 170659Z 18009KT 10/04 A2997 RMK A01 T01020044  RH  068%=      5-min Rain = 0
KHA3 170700Z 18009KT 10/04 A2997 RMK A01 T01020044  RH  068%=      5-min Rain = 0
KHA3 170701Z 18009KT 10/04 A2997 RMK A01 T01020044  RH  067%=      5-min Rain = 0
KHA3 170702Z 18009KT 10/05 A2997 RMK A01 T01030045  RH  067%=      5-min Rain = 0
KHA3 170703Z 18008KT 10/05 A2997 RMK A01 T01030045  RH  067%=      5-min Rain = 0
KHA3 170704Z 18009KT 10/05 A2997 RMK A01 T01020045  RH  067%=      5-min Rain = 0
KHA3 170705Z 18008KT 10/05 A2997 RMK A01 T01020045  RH  067%=      5-min Rain = 0
KHA3 170706Z 18009KT 10/04 A2997 RMK A01 T01020044  RH  067%=      5-min Rain = 0
KHA3 170707Z 18009KT 10/04 A2997 RMK A01 T01020044  RH  068%=      5-min Rain = 0
KHA3 170708Z 17008KT 10/04 A2997 RMK A01 T01010044  RH  068%=      5-min Rain = 0
KHA3 170709Z 17009KT 10/04 A2997 RMK A01 T01000044  RH  068%=      5-min Rain = 0
KHA3 170710Z 17008KT 10/04 A2997 RMK A01 T01000044  RH  068%=      5-min Rain = 0
KHA3 170711Z 17008KT 10/04 A2996 RMK A01 T01000044  RH  068%=      5-min Rain = 0
KHA3 170712Z 17008KT 10/04 A2996 RMK A01 T00990043  RH  068%=      5-min Rain = 0
KHA3 170713Z 17008KT 10/04 A2996 RMK A01 T00980043  RH  069%=      5-min Rain = 0
KHA3 170714Z 17007KT 10/04 A2996 RMK A01 T00980044  RH  069%=      5-min Rain = 0
KHA3 170715Z 17007KT 10/04 A2996 RMK A01 T00980043  RH  069%=      5-min Rain = 0
KHA3 170716Z 17008KT 10/04 A2996 RMK A01 T00970043  RH  069%=      5-min Rain = 0
KHA3 170717Z 17008KT 10/04 A2996 RMK A01 T00970043  RH  069%=      5-min Rain = 0
KHA3 170718Z 17008KT 10/04 A2996 RMK A01 T00960043  RH  069%=      5-min Rain = 0
KHA3 170719Z 17008KT 10/04 A2996 RMK A01 T00950043  RH  070%=      5-min Rain = 0
KHA3 170720Z 18008KT 10/04 A2997 RMK A01 T00950043  RH  070%=      5-min Rain = 0
KHA3 170721Z 18008KT 10/04 A2997 RMK A01 T00950043  RH  070%=      5-min Rain = 0
KHA3 170722Z 18008KT 09/04 A2997 RMK A01 T00940043  RH  070%=      5-min Rain = 0
KHA3 170723Z 18008KT 09/04 A2997 RMK A01 T00940043  RH  070%=      5-min Rain = 0
KHA3 170724Z 18008KT 09/04 A2997 RMK A01 T00940043  RH  071%=      5-min Rain = 0
KHA3 170725Z 18007KT 09/04 A2997 RMK A01 T00930043  RH  071%=      5-min Rain = 0
KHA3 170726Z 19007KT 09/04 A2997 RMK A01 T00930043  RH  071%=      5-min Rain = 0
KHA3 170727Z 19007KT 09/04 A2997 RMK A01 T00930043  RH  071%=      5-min Rain = 0
KHA3 170728Z 19007KT 09/04 A2997 RMK A01 T00930043  RH  071%=      5-min Rain = 0
KHA3 170729Z 19007KT 09/04 A2997 RMK A01 T00930043  RH  071%=      5-min Rain = 0
KHA3 170730Z 19007KT 09/04 A2997 RMK A01 T00930043  RH  071%=      5-min Rain = 0
KHA3 170731Z 19006KT 09/04 A2997 RMK A01 T00920043  RH  071%=      5-min Rain = 0
KHA3 170732Z 20007KT 09/04 A2997 RMK A01 T00920043  RH  071%=      5-min Rain = 0
KHA3 170733Z 20007KT 09/04 A2997 RMK A01 T00920043  RH  072%=      5-min Rain = 0
KHA3 170734Z 20007KT 09/04 A2997 RMK A01 T00920043  RH  072%=      5-min Rain = 0
KHA3 170735Z 20007KT 09/04 A2997 RMK A01 T00910043  RH  072%=      5-min Rain = 0
KHA3 170736Z 20007KT 09/04 A2997 RMK A01 T00920043  RH  072%=      5-min Rain = 0
KHA3 170737Z 20007KT 09/04 A2997 RMK A01 T00910043  RH  072%=      5-min Rain = 0
KHA3 170738Z 20007KT 09/04 A2997 RMK A01 T00910043  RH  072%=      5-min Rain = 0
KHA3 170739Z 20007KT 09/04 A2997 RMK A01 T00900042  RH  072%=      5-min Rain = 0
KHA3 170740Z 20007KT 09/04 A2997 RMK A01 T00890042  RH  072%=      5-min Rain = 0
KHA3 170741Z 20007KT 09/04 A2997 RMK A01 T00890042  RH  072%=      5-min Rain = 0
KHA3 170742Z 20007KT 09/04 A2997 RMK A01 T00880042  RH  073%=      5-min Rain = 0
KHA3 170743Z 20007KT 09/04 A2997 RMK A01 T00870042  RH  073%=      5-min Rain = 0
KHA3 170744Z 20007KT 09/04 A2997 RMK A01 T00870042  RH  073%=      5-min Rain = 0
KHA3 170745Z 20007KT 09/04 A2996 RMK A01 T00860041  RH  074%=      5-min Rain = 0
KHA3 170746Z 20008KT 09/04 A2996 RMK A01 T00850041  RH  074%=      5-min Rain = 0
KHA3 170747Z 20007KT 08/04 A2996 RMK A01 T00840040  RH  074%=      5-min Rain = 0
KHA3 170748Z 20007KT 08/04 A2996 RMK A01 T00820040  RH  075%=      5-min Rain = 0
KHA3 170749Z 20007KT 08/04 A2996 RMK A01 T00810040  RH  075%=      5-min Rain = 0
KHA3 170750Z 20006KT 08/04 A2996 RMK A01 T00800040  RH  076%=      5-min Rain = 0
KHA3 170751Z 20006KT 08/04 A2996 RMK A01 T00790039  RH  076%=      5-min Rain = 0
KHA3 170752Z 20005KT 08/04 A2996 RMK A01 T00780039  RH  076%=      5-min Rain = 0
KHA3 170753Z 20006KT 08/04 A2996 RMK A01 T00780039  RH  077%=      5-min Rain = 0
KHA3 170754Z 19006KT 08/04 A2996 RMK A01 T00780039  RH  077%=      5-min Rain = 0
KHA3 170755Z 20006KT 08/04 A2996 RMK A01 T00780040  RH  077%=      5-min Rain = 0
KHA3 170756Z 20006KT 08/04 A2996 RMK A01 T00780040  RH  077%=      5-min Rain = 0
KHA3 170757Z 20007KT 08/04 A2996 RMK A01 T00790041  RH  077%=      5-min Rain = 0
KHA3 170758Z 19006KT 08/04 A2996 RMK A01 T00800041  RH  076%=      5-min Rain = 0
KHA3 170759Z 19007KT 08/04 A2996 RMK A01 T00800041  RH  076%=      5-min Rain = 0
KHA3 170800Z 18006KT 08/04 A2996 RMK A01 T00810041  RH  076%=      5-min Rain = 0
KHA3 170801Z 19007KT 08/04 A2996 RMK A01 T00820042  RH  076%=      5-min Rain = 0
KHA3 170802Z 19007KT 08/04 A2996 RMK A01 T00830042  RH  075%=      5-min Rain = 0
KHA3 170803Z 19007KT 08/04 A2996 RMK A01 T00840042  RH  075%=      5-min Rain = 0
KHA3 170804Z 19007KT 08/04 A2996 RMK A01 T00840042  RH  075%=      5-min Rain = 0
KHA3 170805Z 19007KT 08/04 A2996 RMK A01 T00840042  RH  075%=      5-min Rain = 0
KHA3 170806Z 19007KT 08/04 A2996 RMK A01 T00840042  RH  075%=      5-min Rain = 0
KHA3 170807Z 19008KT 08/04 A2996 RMK A01 T00840042  RH  075%=      5-min Rain = 0
KHA3 170808Z 19008KT 09/04 A2996 RMK A01 T00850042  RH  075%=      5-min Rain = 0
KHA3 170809Z 19007KT 08/04 A2996 RMK A01 T00840042  RH  074%=      5-min Rain = 0
KHA3 170810Z 18007KT 09/04 A2996 RMK A01 T00850042  RH  075%=      5-min Rain = 0
KHA3 170811Z 19007KT 08/04 A2996 RMK A01 T00840042  RH  075%=      5-min Rain = 0
KHA3 170812Z 18007KT 08/04 A2996 RMK A01 T00840042  RH  075%=      5-min Rain = 0
KHA3 170813Z 18006KT 08/04 A2996 RMK A01 T00840042  RH  075%=      5-min Rain = 0
KHA3 170814Z 19007KT 08/04 A2996 RMK A01 T00840042  RH  075%=      5-min Rain = 0
KHA3 170815Z 19006KT 08/04 A2996 RMK A01 T00840042  RH  075%=      5-min Rain = 0
KHA3 170816Z 19006KT 08/04 A2996 RMK A01 T00840042  RH  075%=      5-min Rain = 0
KHA3 170817Z 19006KT 08/04 A2996 RMK A01 T00840042  RH  075%=      5-min Rain = 0
KHA3 170818Z 19006KT 08/04 A2996 RMK A01 T00840042  RH  075%=      5-min Rain = 0
KHA3 170819Z 19006KT 08/04 A2996 RMK A01 T00840042  RH  075%=      5-min Rain = 0
KHA3 170820Z 19006KT 08/04 A2996 RMK A01 T00830041  RH  075%=      5-min Rain = 0
KHA3 170821Z 19006KT 08/04 A2997 RMK A01 T00820041  RH  075%=      5-min Rain = 0
KHA3 170822Z 19006KT 08/04 A2997 RMK A01 T00820041  RH  075%=      5-min Rain = 0
KHA3 170823Z 19006KT 08/04 A2997 RMK A01 T00820041  RH  076%=      5-min Rain = 0
KHA3 170824Z 19006KT 08/04 A2997 RMK A01 T00810041  RH  076%=      5-min Rain = 0
KHA3 170825Z 19007KT 08/04 A2996 RMK A01 T00810041  RH  076%=      5-min Rain = 0
KHA3 170826Z 19006KT 08/04 A2996 RMK A01 T00810041  RH  076%=      5-min Rain = 0
KHA3 170827Z 19007KT 08/04 A2996 RMK A01 T00800041  RH  076%=      5-min Rain = 0
KHA3 170828Z 18007KT 08/04 A2996 RMK A01 T00800041  RH  076%=      5-min Rain = 0
KHA3 170829Z 19007KT 08/04 A2996 RMK A01 T00790040  RH  076%=      5-min Rain = 0
KHA3 170830Z 19007KT 08/04 A2996 RMK A01 T00790041  RH  077%=      5-min Rain = 0
KHA3 170831Z 18007KT 08/04 A2996 RMK A01 T00790041  RH  077%=      5-min Rain = 0
KHA3 170832Z 19006KT 08/04 A2996 RMK A01 T00790041  RH  077%=      5-min Rain = 0
KHA3 170833Z 19007KT 08/04 A2996 RMK A01 T00790040  RH  077%=      5-min Rain = 0
KHA3 170834Z 20006KT 08/04 A2996 RMK A01 T00780040  RH  077%=      5-min Rain = 0
KHA3 170835Z 20006KT 08/04 A2996 RMK A01 T00780040  RH  077%=      5-min Rain = 0
KHA3 170836Z 20005KT 08/04 A2996 RMK A01 T00760039  RH  077%=      5-min Rain = 0
KHA3 170837Z 22004KT 08/04 A2996 RMK A01 T00760039  RH  078%=      5-min Rain = 0
KHA3 170838Z 22003KT 08/04 A2996 RMK A01 T00750039  RH  078%=      5-min Rain = 0
KHA3 170839Z 22003KT 08/04 A2996 RMK A01 T00750038  RH  078%=      5-min Rain = 0
KHA3 170840Z 22004KT 07/04 A2996 RMK A01 T00730038  RH  078%=      5-min Rain = 0
KHA3 170841Z 22004KT 07/04 A2996 RMK A01 T00720038  RH  079%=      5-min Rain = 0
KHA3 170842Z 22004KT 07/04 A2996 RMK A01 T00720038  RH  079%=      5-min Rain = 0
KHA3 170843Z 22004KT 07/04 A2996 RMK A01 T00720038  RH  079%=      5-min Rain = 0
KHA3 170844Z 22004KT 07/04 A2996 RMK A01 T00710038  RH  079%=      5-min Rain = 0
KHA3 170845Z 23004KT 07/04 A2996 RMK A01 T00710039  RH  080%=      5-min Rain = 0
KHA3 170846Z 23004KT 07/04 A2996 RMK A01 T00720039  RH  080%=      5-min Rain = 0
KHA3 170847Z 24004KT 07/04 A2996 RMK A01 T00720039  RH  080%=      5-min Rain = 0
KHA3 170848Z 25004KT 07/04 A2997 RMK A01 T00720039  RH  079%=      5-min Rain = 0
KHA3 170849Z 25004KT 07/04 A2997 RMK A01 T00710038  RH  079%=      5-min Rain = 0
KHA3 170850Z 24004KT 07/04 A2997 RMK A01 T00710038  RH  080%=      5-min Rain = 0
KHA3 170851Z 24004KT 07/04 A2997 RMK A01 T00700038  RH  080%=      5-min Rain = 0
KHA3 170852Z 24005KT 07/04 A2997 RMK A01 T00700039  RH  080%=      5-min Rain = 0
KHA3 170853Z 24005KT 07/04 A2997 RMK A01 T00710039  RH  080%=      5-min Rain = 0
KHA3 170854Z 24005KT 07/04 A2997 RMK A01 T00700039  RH  080%=      5-min Rain = 0
KHA3 170855Z 24004KT 07/04 A2997 RMK A01 T00700038  RH  080%=      5-min Rain = 0
KHA3 170856Z 24004KT 07/04 A2997 RMK A01 T00690037  RH  080%=      5-min Rain = 0
KHA3 170857Z 24004KT 07/04 A2997 RMK A01 T00670036  RH  081%=      5-min Rain = 0
KHA3 170858Z 24004KT 07/04 A2997 RMK A01 T00660036  RH  081%=      5-min Rain = 0
KHA3 170859Z 24005KT 07/04 A2997 RMK A01 T00660037  RH  082%=      5-min Rain = 0
KHA3 170900Z 24004KT 07/04 A2997 RMK A01 T00660036  RH  082%=      5-min Rain = 0
KHA3 170901Z 25004KT 07/04 A2997 RMK A01 T00650036  RH  082%=      5-min Rain = 0
KHA3 170902Z 25004KT 07/04 A2997 RMK A01 T00650035  RH  082%=      5-min Rain = 0
KHA3 170903Z 26004KT 06/04 A2997 RMK A01 T00640035  RH  082%=      5-min Rain = 0
KHA3 170904Z 26005KT 06/03 A2997 RMK A01 T00630034  RH  082%=      5-min Rain = 0
KHA3 170905Z 26005KT 06/03 A2997 RMK A01 T00620034  RH  082%=      5-min Rain = 0
KHA3 170906Z 25005KT 06/03 A2997 RMK A01 T00610034  RH  083%=      5-min Rain = 0
KHA3 170907Z 25004KT 06/03 A2997 RMK A01 T00600034  RH  083%=      5-min Rain = 0
KHA3 170908Z 25005KT 06/03 A2997 RMK A01 T00590034  RH  084%=      5-min Rain = 0
KHA3 170909Z 24005KT 06/03 A2997 RMK A01 T00590034  RH  084%=      5-min Rain = 0
KHA3 170910Z 25005KT 06/03 A2997 RMK A01 T00590034  RH  084%=      5-min Rain = 0
KHA3 170911Z 25005KT 06/03 A2997 RMK A01 T00590034  RH  084%=      5-min Rain = 0
KHA3 170912Z 26005KT 06/03 A2997 RMK A01 T00580033  RH  084%=      5-min Rain = 0
KHA3 170913Z 26005KT 06/03 A2997 RMK A01 T00570033  RH  084%=      5-min Rain = 0
KHA3 170914Z 26005KT 06/03 A2997 RMK A01 T00570032  RH  084%=      5-min Rain = 0
KHA3 170915Z 26005KT 06/03 A2997 RMK A01 T00550031  RH  084%=      5-min Rain = 0
KHA3 170916Z 25005KT 05/03 A2997 RMK A01 T00530030  RH  085%=      5-min Rain = 0
KHA3 170917Z 24005KT 05/03 A2997 RMK A01 T00520030  RH  085%=      5-min Rain = 0
KHA3 170918Z 24005KT 05/03 A2997 RMK A01 T00510030  RH  086%=      5-min Rain = 0
KHA3 170919Z 23004KT 05/03 A2997 RMK A01 T00510029  RH  086%=      5-min Rain = 0
KHA3 170920Z 23005KT 05/03 A2997 RMK A01 T00500029  RH  086%=      5-min Rain = 0
KHA3 170921Z 22005KT 05/03 A2997 RMK A01 T00500031  RH  088%=      5-min Rain = 0
KHA3 170922Z 22005KT 05/03 A2997 RMK A01 T00510033  RH  088%=      5-min Rain = 0
KHA3 170923Z 21005KT 05/03 A2997 RMK A01 T00530034  RH  087%=      5-min Rain = 0
KHA3 170924Z 21005KT 05/03 A2997 RMK A01 T00540033  RH  086%=      5-min Rain = 0
KHA3 170925Z 21005KT 05/03 A2997 RMK A01 T00540032  RH  086%=      5-min Rain = 0
KHA3 170926Z 21005KT 05/03 A2997 RMK A01 T00530030  RH  085%=      5-min Rain = 0
KHA3 170927Z 21004KT 05/03 A2997 RMK A01 T00520029  RH  085%=      5-min Rain = 0
KHA3 170928Z 21004KT 05/03 A2997 RMK A01 T00520031  RH  086%=      5-min Rain = 0
KHA3 170929Z 21005KT 05/03 A2997 RMK A01 T00520032  RH  087%=      5-min Rain = 0
KHA3 170930Z 21004KT 05/03 A2997 RMK A01 T00530033  RH  087%=      5-min Rain = 0
KHA3 170931Z 22004KT 05/03 A2997 RMK A01 T00540034  RH  087%=      5-min Rain = 0
KHA3 170932Z 22005KT 06/04 A2997 RMK A01 T00550035  RH  087%=      5-min Rain = 0
KHA3 170933Z 22005KT 06/04 A2997 RMK A01 T00560035  RH  086%=      5-min Rain = 0
KHA3 170934Z 21005KT 06/03 A2997 RMK A01 T00570034  RH  085%=      5-min Rain = 0
KHA3 170935Z 21005KT 06/03 A2997 RMK A01 T00570034  RH  085%=      5-min Rain = 0
KHA3 170936Z 21005KT 06/03 A2997 RMK A01 T00570034  RH  085%=      5-min Rain = 0
KHA3 170937Z 21006KT 06/03 A2997 RMK A01 T00570034  RH  085%=      5-min Rain = 0
KHA3 170938Z 22005KT 06/03 A2997 RMK A01 T00570034  RH  086%=      5-min Rain = 0
KHA3 170939Z 22006KT 06/04 A2997 RMK A01 T00570035  RH  086%=      5-min Rain = 0
KHA3 170940Z 21006KT 06/04 A2997 RMK A01 T00580036  RH  086%=      5-min Rain = 0
KHA3 170941Z 21006KT 06/04 A2997 RMK A01 T00580037  RH  086%=      5-min Rain = 0
KHA3 170942Z 21006KT 06/04 A2997 RMK A01 T00590037  RH  085%=      5-min Rain = 0
KHA3 170943Z 21006KT 06/04 A2997 RMK A01 T00590036  RH  085%=      5-min Rain = 0
KHA3 170944Z 21007KT 06/04 A2997 RMK A01 T00590037  RH  086%=      5-min Rain = 0
KHA3 170945Z 20007KT 06/04 A2997 RMK A01 T00590038  RH  086%=      5-min Rain = 0
KHA3 170946Z 20008KT 06/04 A2997 RMK A01 T00590038  RH  086%=      5-min Rain = 0
KHA3 170947Z 20008KT 06/04 A2997 RMK A01 T00600039  RH  086%=      5-min Rain = 0
KHA3 170948Z 20008KT 06/04 A2997 RMK A01 T00610039  RH  086%=      5-min Rain = 0
KHA3 170949Z 20008KT 06/04 A2997 RMK A01 T00620039  RH  085%=      5-min Rain = 0
KHA3 170950Z 20008KT 06/04 A2997 RMK A01 T00620039  RH  085%=      5-min Rain = 0
KHA3 170951Z 20008KT 06/04 A2997 RMK A01 T00620039  RH  085%=      5-min Rain = 0
KHA3 170952Z 20009KT 06/04 A2997 RMK A01 T00620039  RH  085%=      5-min Rain = 0
KHA3 170953Z 20008KT 06/04 A2997 RMK A01 T00630039  RH  085%=      5-min Rain = 0
KHA3 170954Z 20008KT 06/04 A2997 RMK A01 T00640040  RH  085%=      5-min Rain = 0
KHA3 170955Z 20008KT 06/04 A2997 RMK A01 T00640040  RH  085%=      5-min Rain = 0
KHA3 170956Z 21008KT 06/04 A2997 RMK A01 T00640040  RH  084%=      5-min Rain = 0
KHA3 170957Z 21008KT 06/04 A2997 RMK A01 T00640039  RH  084%=      5-min Rain = 0
KHA3 170958Z 21008KT 06/04 A2997 RMK A01 T00640039  RH  084%=      5-min Rain = 0
KHA3 170959Z 20008KT 07/04 A2997 RMK A01 T00650040  RH  084%=      5-min Rain = 0
KHA3 171000Z 21008KT 07/04 A2997 RMK A01 T00650040  RH  084%=      5-min Rain = 0
KHA3 171001Z 20008KT 07/04 A2997 RMK A01 T00650040  RH  084%=      5-min Rain = 0
KHA3 171002Z 20007KT 07/04 A2997 RMK A01 T00660040  RH  083%=      5-min Rain = 0
KHA3 171003Z 20007KT 07/04 A2997 RMK A01 T00660040  RH  083%=      5-min Rain = 0
KHA3 171004Z 20007KT 07/04 A2997 RMK A01 T00660040  RH  083%=      5-min Rain = 0
KHA3 171005Z 20007KT 07/04 A2997 RMK A01 T00650039  RH  084%=      5-min Rain = 0
KHA3 171006Z 20007KT 07/04 A2997 RMK A01 T00650039  RH  084%=      5-min Rain = 0
KHA3 171007Z 21008KT 07/04 A2997 RMK A01 T00650040  RH  084%=      5-min Rain = 0
KHA3 171008Z 21008KT 07/04 A2997 RMK A01 T00650040  RH  084%=      5-min Rain = 0
KHA3 171009Z 21008KT 07/04 A2997 RMK A01 T00650040  RH  084%=      5-min Rain = 0
KHA3 171010Z 21008KT 07/04 A2997 RMK A01 T00660040  RH  084%=      5-min Rain = 0
KHA3 171011Z 21007KT 07/04 A2997 RMK A01 T00670040  RH  083%=      5-min Rain = 0
KHA3 171012Z 21008KT 07/04 A2997 RMK A01 T00670040  RH  083%=      5-min Rain = 0
KHA3 171013Z 21008KT 07/04 A2997 RMK A01 T00670040  RH  083%=      5-min Rain = 0
KHA3 171014Z 22007KT 07/04 A2997 RMK A01 T00670040  RH  083%=      5-min Rain = 0
KHA3 171015Z 22007KT 07/04 A2997 RMK A01 T00670040  RH  083%=      5-min Rain = 0
KHA3 171016Z 23007KT 07/04 A2997 RMK A01 T00680041  RH  083%=      5-min Rain = 0
KHA3 171017Z 23008KT 07/04 A2997 RMK A01 T00700042  RH  082%=      5-min Rain = 0
KHA3 171018Z 23008KT 07/04 A2997 RMK A01 T00710042  RH  082%=      5-min Rain = 0
KHA3 171019Z 24007KT 07/04 A2997 RMK A01 T00720042  RH  081%=      5-min Rain = 0
KHA3 171020Z 23007KT 07/04 A2998 RMK A01 T00730042  RH  081%=      5-min Rain = 0
KHA3 171021Z 24006KT 07/04 A2998 RMK A01 T00740042  RH  080%=      5-min Rain = 0
KHA3 171022Z 24006KT 07/04 A2998 RMK A01 T00740041  RH  080%=      5-min Rain = 0
KHA3 171023Z 24006KT 07/04 A2998 RMK A01 T00720039  RH  080%=      5-min Rain = 0
KHA3 171024Z 25006KT 07/04 A2998 RMK A01 T00690038  RH  081%=      5-min Rain = 0
KHA3 171025Z 26006KT 07/04 A2998 RMK A01 T00670038  RH  082%=      5-min Rain = 0
KHA3 171026Z 26006KT 06/04 A2998 RMK A01 T00640035  RH  082%=      5-min Rain = 0
KHA3 171027Z 26006KT 06/03 A2998 RMK A01 T00590031  RH  082%=      5-min Rain = 0
KHA3 171028Z 27006KT 06/03 A2999 RMK A01 T00550029  RH  084%=      5-min Rain = 0
KHA3 171029Z 28007KT 05/03 A2999 RMK A01 T00520029  RH  085%=      5-min Rain = 0
KHA3 171030Z 29008KT 05/03 A2999 RMK A01 T00480026  RH  086%=      5-min Rain = 0
KHA3 171031Z 32013KT 04/02 A30 RMK A01 T00440024  RH  087%=      5-min Rain = 0
KHA3 171032Z 31011KT 04/02 A30 RMK A01 T00400022  RH  088%=      5-min Rain = 0
KHA3 171033Z 32012KT 04/02 A3001 RMK A01 T00390023  RH  090%=      5-min Rain = 0
KHA3 171034Z 31009KT 04/02 A3001 RMK A01 T00370024  RH  091%=      5-min Rain = 0
KHA3 171035Z 31008KT 04/02 A30 RMK A01 T00370024  RH  091%=      5-min Rain = 0
KHA3 171036Z 31007KT 04/03 A3001 RMK A01 T00370025  RH  092%=      5-min Rain = 0
KHA3 171037Z 31007KT 04/02 A3001 RMK A01 T00360024  RH  092%=      5-min Rain = 0
KHA3 171038Z 30007KT 04/03 A3001 RMK A01 T00360025  RH  092%=      5-min Rain = 0
KHA3 171039Z 31007KT 04/03 A3001 RMK A01 T00360025  RH  092%=      5-min Rain = 0
KHA3 171040Z 31004KT 04/03 A3001 RMK A01 T00360025  RH  092%=      5-min Rain = 0
KHA3 171041Z 31004KT 04/03 A3001 RMK A01 T00360025  RH  093%=      5-min Rain = 0
KHA3 171042Z 30004KT 04/03 A30 RMK A01 T00360025  RH  093%=      5-min Rain = 0
KHA3 171043Z 29004KT 04/03 A30 RMK A01 T00360025  RH  093%=      5-min Rain = 0
KHA3 171044Z 30005KT 04/03 A30 RMK A01 T00360026  RH  093%=      5-min Rain = 0
KHA3 171045Z 30006KT 04/03 A3001 RMK A01 T00370026  RH  093%=      5-min Rain = 0
KHA3 171046Z 30006KT 04/03 A3001 RMK A01 T00370026  RH  093%=      5-min Rain = 0
KHA3 171047Z 29006KT 04/03 A3001 RMK A01 T00370026  RH  093%=      5-min Rain = 0
KHA3 171048Z 29006KT 04/03 A3001 RMK A01 T00380026  RH  092%=      5-min Rain = 0
KHA3 171049Z 29006KT 04/03 A3001 RMK A01 T00370026  RH  092%=      5-min Rain = 0
KHA3 171050Z 29006KT 04/03 A3001 RMK A01 T00370026  RH  092%=      5-min Rain = 0
KHA3 171051Z 30007KT 04/03 A3001 RMK A01 T00380026  RH  092%=      5-min Rain = 0
KHA3 171052Z 30007KT 04/03 A3001 RMK A01 T00370025  RH  092%=      5-min Rain = 0
KHA3 171053Z 31007KT 04/03 A3002 RMK A01 T00370026  RH  093%=      5-min Rain = 0
KHA3 171054Z 31007KT 04/03 A3002 RMK A01 T00380027  RH  093%=      5-min Rain = 0
KHA3 171055Z 32007KT 04/03 A3002 RMK A01 T00380028  RH  093%=      5-min Rain = 0
KHA3 171056Z 31007KT 04/03 A3002 RMK A01 T00400029  RH  093%=      5-min Rain = 0
KHA3 171057Z 32007KT 04/03 A3002 RMK A01 T00410029  RH  092%=      5-min Rain = 0
KHA3 171058Z 32006KT 04/03 A3001 RMK A01 T00410029  RH  092%=      5-min Rain = 0
KHA3 171059Z 32006KT 04/03 A3001 RMK A01 T00420029  RH  092%=      5-min Rain = 0
KHA3 171100Z 32007KT 04/03 A3002 RMK A01 T00420030  RH  092%=      5-min Rain = 0
KHA3 171101Z 32007KT 04/03 A3002 RMK A01 T00430031  RH  092%=      5-min Rain = 0
KHA3 171102Z 33007KT 04/03 A3002 RMK A01 T00430030  RH  091%=      5-min Rain = 0
KHA3 171103Z 33007KT 04/03 A3002 RMK A01 T00430030  RH  091%=      5-min Rain = 0
KHA3 171104Z 33007KT 04/03 A3001 RMK A01 T00440030  RH  091%=      5-min Rain = 0
KHA3 171105Z 33006KT 04/03 A3001 RMK A01 T00440030  RH  091%=      5-min Rain = 0
KHA3 171106Z 33006KT 04/03 A3001 RMK A01 T00440030  RH  091%=      5-min Rain = 0
KHA3 171107Z 33006KT 04/03 A3001 RMK A01 T00440030  RH  091%=      5-min Rain = 0
KHA3 171108Z 33006KT 04/03 A3001 RMK A01 T00440030  RH  091%=      5-min Rain = 0
KHA3 171109Z 33007KT 04/03 A3001 RMK A01 T00440031  RH  091%=      5-min Rain = 0
KHA3 171110Z 34006KT 05/03 A3001 RMK A01 T00450032  RH  091%=      5-min Rain = 0
KHA3 171111Z 33005KT 05/03 A3001 RMK A01 T00450032  RH  091%=      5-min Rain = 0
KHA3 171112Z 34005KT 05/03 A3001 RMK A01 T00460031  RH  090%=      5-min Rain = 0
KHA3 171113Z 34005KT 05/03 A3001 RMK A01 T00460031  RH  090%=      5-min Rain = 0
KHA3 171114Z 33005KT 05/03 A3001 RMK A01 T00460031  RH  090%=      5-min Rain = 0
KHA3 171115Z 33005KT 05/03 A3001 RMK A01 T00450030  RH  090%=      5-min Rain = 0
KHA3 171116Z 33005KT 05/03 A3001 RMK A01 T00450030  RH  090%=      5-min Rain = 0
KHA3 171117Z 33005KT 05/03 A3001 RMK A01 T00450030  RH  090%=      5-min Rain = 0
KHA3 171118Z 32006KT 04/03 A3001 RMK A01 T00440029  RH  090%=      5-min Rain = 0
KHA3 171119Z 32006KT 04/03 A3001 RMK A01 T00430028  RH  090%=      5-min Rain = 0
KHA3 171120Z 32006KT 04/03 A3001 RMK A01 T00420028  RH  090%=      5-min Rain = 0
KHA3 171121Z 32008KT 04/03 A3002 RMK A01 T00420027  RH  090%=      5-min Rain = 0
KHA3 171122Z 31008KT 04/03 A3002 RMK A01 T00410027  RH  091%=      5-min Rain = 0
KHA3 171123Z 31009KT 04/03 A3002 RMK A01 T00400027  RH  091%=      5-min Rain = 0
KHA3 171124Z 31010KT 04/03 A3002 RMK A01 T00390027  RH  092%=      5-min Rain = 0
KHA3 171125Z 32009KT 04/03 A3002 RMK A01 T00400028  RH  092%=      5-min Rain = 0
KHA3 171126Z 32008KT 04/03 A3002 RMK A01 T00400029  RH  092%=      5-min Rain = 0
KHA3 171127Z 32007KT 04/03 A3002 RMK A01 T00410029  RH  092%=      5-min Rain = 0
KHA3 171128Z 31007KT 04/03 A3002 RMK A01 T00410029  RH  092%=      5-min Rain = 0
KHA3 171129Z 31007KT 04/03 A3002 RMK A01 T00420029  RH  092%=      5-min Rain = 0
KHA3 171130Z 31007KT 04/03 A3002 RMK A01 T00420029  RH  091%=      5-min Rain = 0
KHA3 171131Z 31008KT 04/03 A3003 RMK A01 T00420029  RH  091%=      5-min Rain = 0
KHA3 171132Z 30007KT 04/03 A3003 RMK A01 T00420029  RH  092%=      5-min Rain = 0
KHA3 171133Z 29005KT 04/03 A3003 RMK A01 T00420029  RH  091%=      5-min Rain = 0
KHA3 171134Z 29005KT 04/03 A3003 RMK A01 T00420029  RH  091%=      5-min Rain = 0
KHA3 171135Z 29006KT 04/03 A3003 RMK A01 T00420029  RH  091%=      5-min Rain = 0
KHA3 171136Z 30007KT 04/03 A3003 RMK A01 T00420029  RH  091%=      5-min Rain = 0
KHA3 171137Z 30007KT 04/03 A3003 RMK A01 T00420028  RH  091%=      5-min Rain = 0
KHA3 171138Z 30006KT 04/03 A3003 RMK A01 T00410028  RH  091%=      5-min Rain = 0
KHA3 171139Z 30005KT 04/03 A3003 RMK A01 T00420028  RH  091%=      5-min Rain = 0
KHA3 171140Z 29005KT 04/03 A3003 RMK A01 T00420028  RH  090%=      5-min Rain = 0
KHA3 171141Z 29005KT 04/03 A3003 RMK A01 T00430028  RH  090%=      5-min Rain = 0
KHA3 171142Z 29005KT 04/03 A3003 RMK A01 T00420027  RH  090%=      5-min Rain = 0
KHA3 171143Z 31005KT 04/03 A3003 RMK A01 T00430027  RH  090%=      5-min Rain = 0
KHA3 171144Z 31006KT 04/03 A3003 RMK A01 T00430027  RH  089%=      5-min Rain = 0
KHA3 171145Z 31006KT 04/03 A3003 RMK A01 T00440027  RH  089%=      5-min Rain = 0
KHA3 171146Z 31006KT 04/03 A3003 RMK A01 T00440027  RH  088%=      5-min Rain = 0
KHA3 171147Z 31007KT 04/03 A3003 RMK A01 T00440026  RH  088%=      5-min Rain = 0
KHA3 171148Z 31007KT 04/03 A3003 RMK A01 T00440026  RH  088%=      5-min Rain = 0
KHA3 171149Z 31007KT 04/03 A3003 RMK A01 T00440026  RH  088%=      5-min Rain = 0
KHA3 171150Z 30005KT 04/03 A3003 RMK A01 T00440026  RH  088%=      5-min Rain = 0
KHA3 171151Z 30005KT 04/03 A3003 RMK A01 T00440025  RH  088%=      5-min Rain = 0
KHA3 171152Z 30004KT 04/03 A3003 RMK A01 T00440025  RH  087%=      5-min Rain = 0
KHA3 171153Z 30004KT 05/03 A3003 RMK A01 T00450025  RH  087%=      5-min Rain = 0
KHA3 171154Z 30005KT 05/03 A3003 RMK A01 T00460025  RH  086%=      5-min Rain = 0
KHA3 171155Z 30005KT 05/02 A3003 RMK A01 T00460024  RH  086%=      5-min Rain = 0
KHA3 171156Z 30005KT 05/02 A3003 RMK A01 T00460024  RH  086%=      5-min Rain = 0
KHA3 171157Z 31005KT 05/02 A3003 RMK A01 T00460024  RH  086%=      5-min Rain = 0
KHA3 171158Z 32005KT 05/02 A3003 RMK A01 T00460023  RH  085%=      5-min Rain = 0
KHA3 171159Z 32005KT 05/02 A3003 RMK A01 T00460023  RH  085%=      5-min Rain = 0
KHA3 171200Z 32005KT 05/02 A3003 RMK A01 T00460023  RH  085%=      5-min Rain = 0
KHA3 171201Z 33005KT 05/02 A3003 RMK A01 T00460023  RH  085%=      5-min Rain = 0
KHA3 171202Z 33006KT 05/02 A3003 RMK A01 T00450022  RH  085%=      5-min Rain = 0
KHA3 171203Z 32008KT 05/02 A3004 RMK A01 T00450022  RH  085%=      5-min Rain = 0
KHA3 171204Z 32009KT 04/02 A3004 RMK A01 T00440022  RH  085%=      5-min Rain = 0
KHA3 171205Z 32009KT 04/02 A3004 RMK A01 T00440022  RH  086%=      5-min Rain = 0
KHA3 171206Z 32008KT 04/02 A3004 RMK A01 T00440022  RH  086%=      5-min Rain = 0
KHA3 171207Z 31007KT 04/02 A3004 RMK A01 T00440022  RH  086%=      5-min Rain = 0
KHA3 171208Z 31007KT 04/02 A3004 RMK A01 T00430022  RH  086%=      5-min Rain = 0
KHA3 171209Z 31007KT 04/02 A3004 RMK A01 T00430021  RH  086%=      5-min Rain = 0
KHA3 171210Z 31007KT 04/02 A3004 RMK A01 T00430021  RH  086%=      5-min Rain = 0
KHA3 171211Z 31007KT 04/02 A3004 RMK A01 T00440021  RH  085%=      5-min Rain = 0
KHA3 171212Z 31007KT 04/02 A3004 RMK A01 T00430021  RH  085%=      5-min Rain = 0
KHA3 171213Z 31006KT 04/02 A3004 RMK A01 T00430021  RH  085%=      5-min Rain = 0
KHA3 171214Z 31006KT 04/02 A3004 RMK A01 T00430021  RH  086%=      5-min Rain = 0
KHA3 171215Z 31007KT 04/02 A3004 RMK A01 T00420020  RH  086%=      5-min Rain = 0
KHA3 171216Z 31007KT 04/02 A3004 RMK A01 T00430020  RH  085%=      5-min Rain = 0
KHA3 171217Z 31006KT 04/02 A3004 RMK A01 T00420020  RH  085%=      5-min Rain = 0
KHA3 171218Z 31007KT 04/02 A3004 RMK A01 T00420020  RH  085%=      5-min Rain = 0
KHA3 171219Z 31008KT 04/02 A3005 RMK A01 T00420020  RH  086%=      5-min Rain = 0
KHA3 171220Z 31007KT 04/02 A3005 RMK A01 T00420020  RH  086%=      5-min Rain = 0
KHA3 171221Z 31007KT 04/02 A3005 RMK A01 T00410019  RH  086%=      5-min Rain = 0
KHA3 171222Z 30008KT 04/02 A3005 RMK A01 T00410019  RH  086%=      5-min Rain = 0
KHA3 171223Z 30008KT 04/02 A3005 RMK A01 T00400018  RH  086%=      5-min Rain = 0
KHA3 171224Z 30007KT 04/02 A3005 RMK A01 T00390018  RH  086%=      5-min Rain = 0
KHA3 171225Z 30007KT 04/02 A3005 RMK A01 T00380018  RH  086%=      5-min Rain = 0
KHA3 171226Z 30007KT 04/02 A3005 RMK A01 T00380018  RH  087%=      5-min Rain = 0
KHA3 171227Z 30007KT 04/02 A3005 RMK A01 T00370017  RH  087%=      5-min Rain = 0
KHA3 171228Z 30007KT 04/02 A3005 RMK A01 T00370018  RH  087%=      5-min Rain = 0
KHA3 171229Z 30007KT 04/02 A3005 RMK A01 T00370018  RH  087%=      5-min Rain = 0
KHA3 171230Z 30007KT 04/02 A3005 RMK A01 T00370017  RH  087%=      5-min Rain = 0
KHA3 171231Z 30007KT 04/02 A3005 RMK A01 T00360017  RH  087%=      5-min Rain = 0
KHA3 171232Z 30007KT 04/02 A3006 RMK A01 T00370017  RH  087%=      5-min Rain = 0
KHA3 171233Z 30006KT 04/02 A3006 RMK A01 T00380019  RH  087%=      5-min Rain = 0
KHA3 171234Z 30007KT 04/02 A3006 RMK A01 T00390019  RH  087%=      5-min Rain = 0
KHA3 171235Z 30007KT 04/02 A3006 RMK A01 T00400019  RH  086%=      5-min Rain = 0
KHA3 171236Z 30006KT 04/02 A3006 RMK A01 T00410018  RH  085%=      5-min Rain = 0
KHA3 171237Z 30005KT 04/02 A3006 RMK A01 T00420018  RH  085%=      5-min Rain = 0
KHA3 171238Z 29006KT 04/02 A3006 RMK A01 T00420018  RH  084%=      5-min Rain = 0
KHA3 171239Z 31006KT 04/02 A3006 RMK A01 T00420018  RH  084%=      5-min Rain = 0
KHA3 171240Z 31006KT 04/02 A3006 RMK A01 T00420017  RH  084%=      5-min Rain = 0
KHA3 171241Z 30006KT 04/02 A3006 RMK A01 T00420017  RH  084%=      5-min Rain = 0
KHA3 171242Z 30006KT 04/02 A3007 RMK A01 T00420016  RH  084%=      5-min Rain = 0
KHA3 171243Z 30006KT 04/02 A3007 RMK A01 T00420016  RH  084%=      5-min Rain = 0
KHA3 171244Z 31006KT 04/02 A3007 RMK A01 T00420016  RH  084%=      5-min Rain = 0
KHA3 171245Z 31005KT 04/02 A3007 RMK A01 T00420016  RH  083%=      5-min Rain = 0
KHA3 171246Z 32006KT 04/02 A3007 RMK A01 T00420016  RH  083%=      5-min Rain = 0
KHA3 171247Z 32006KT 04/02 A3007 RMK A01 T00420016  RH  083%=      5-min Rain = 0
KHA3 171248Z 32007KT 04/02 A3007 RMK A01 T00430016  RH  083%=      5-min Rain = 0
KHA3 171249Z 32006KT 04/02 A3007 RMK A01 T00430016  RH  082%=      5-min Rain = 0
KHA3 171250Z 32007KT 04/02 A3007 RMK A01 T00440015  RH  082%=      5-min Rain = 0
KHA3 171251Z 33006KT 04/02 A3007 RMK A01 T00440016  RH  082%=      5-min Rain = 0
KHA3 171252Z 33006KT 05/02 A3007 RMK A01 T00450016  RH  081%=      5-min Rain = 0
KHA3 171253Z 33006KT 05/02 A3007 RMK A01 T00450016  RH  081%=      5-min Rain = 0
KHA3 171254Z 32006KT 05/02 A3007 RMK A01 T00450016  RH  081%=      5-min Rain = 0
KHA3 171255Z 33006KT 05/02 A3007 RMK A01 T00460016  RH  081%=      5-min Rain = 0
KHA3 171256Z 32005KT 05/02 A3007 RMK A01 T00460016  RH  081%=      5-min Rain = 0
KHA3 171257Z 33006KT 05/02 A3007 RMK A01 T00460016  RH  081%=      5-min Rain = 0
KHA3 171258Z 33005KT 05/02 A3007 RMK A01 T00460015  RH  081%=      5-min Rain = 0
KHA3 171259Z 33006KT 05/02 A3007 RMK A01 T00460016  RH  081%=      5-min Rain = 0
KHA3 171300Z 33006KT 05/02 A3007 RMK A01 T00460016  RH  081%=      5-min Rain = 0
KHA3 171301Z 33006KT 05/02 A3007 RMK A01 T00460016  RH  081%=      5-min Rain = 0
KHA3 171302Z 33006KT 05/02 A3007 RMK A01 T00470016  RH  080%=      5-min Rain = 0
KHA3 171303Z 33006KT 05/02 A3007 RMK A01 T00470016  RH  080%=      5-min Rain = 0
KHA3 171304Z 32006KT 05/02 A3008 RMK A01 T00470016  RH  080%=      5-min Rain = 0
KHA3 171305Z 32006KT 05/02 A3008 RMK A01 T00470016  RH  080%=      5-min Rain = 0
KHA3 171306Z 32006KT 05/02 A3008 RMK A01 T00470015  RH  080%=      5-min Rain = 0
KHA3 171307Z 32006KT 05/02 A3008 RMK A01 T00460015  RH  080%=      5-min Rain = 0
KHA3 171308Z 32006KT 05/02 A3008 RMK A01 T00460015  RH  080%=      5-min Rain = 0
KHA3 171309Z 32006KT 05/01 A3008 RMK A01 T00450014  RH  081%=      5-min Rain = 0
KHA3 171310Z 32006KT 05/02 A3008 RMK A01 T00450015  RH  081%=      5-min Rain = 0
KHA3 171311Z 32006KT 05/02 A3008 RMK A01 T00450015  RH  081%=      5-min Rain = 0
KHA3 171312Z 32006KT 05/02 A3008 RMK A01 T00460015  RH  081%=      5-min Rain = 0
KHA3 171313Z 32006KT 05/02 A3008 RMK A01 T00460015  RH  080%=      5-min Rain = 0
KHA3 171314Z 32006KT 05/02 A3008 RMK A01 T00460015  RH  081%=      5-min Rain = 0
KHA3 171315Z 32006KT 05/02 A3008 RMK A01 T00460016  RH  081%=      5-min Rain = 0
KHA3 171316Z 32006KT 05/02 A3009 RMK A01 T00470016  RH  081%=      5-min Rain = 0
KHA3 171317Z 32006KT 05/02 A3009 RMK A01 T00490017  RH  080%=      5-min Rain = 0
KHA3 171318Z 32007KT 05/02 A3009 RMK A01 T00500018  RH  079%=      5-min Rain = 0
KHA3 171319Z 32006KT 05/02 A3009 RMK A01 T00510018  RH  079%=      5-min Rain = 0
KHA3 171320Z 32006KT 05/02 A3009 RMK A01 T00510018  RH  079%=      5-min Rain = 0
KHA3 171321Z 32007KT 05/02 A3009 RMK A01 T00520018  RH  079%=      5-min Rain = 0
KHA3 171322Z 32007KT 05/02 A3009 RMK A01 T00530019  RH  079%=      5-min Rain = 0
KHA3 171323Z 33008KT 05/02 A3009 RMK A01 T00540019  RH  078%=      5-min Rain = 0
KHA3 171324Z 32008KT 06/02 A3009 RMK A01 T00550020  RH  078%=      5-min Rain = 0
KHA3 171325Z 32007KT 06/02 A3009 RMK A01 T00560019  RH  077%=      5-min Rain = 0
KHA3 171326Z 33008KT 06/02 A3009 RMK A01 T00570019  RH  077%=      5-min Rain = 0
KHA3 171327Z 33008KT 06/02 A3009 RMK A01 T00580020  RH  077%=      5-min Rain = 0
KHA3 171328Z 33008KT 06/02 A3009 RMK A01 T00590020  RH  076%=      5-min Rain = 0
KHA3 171329Z 33008KT 06/02 A3009 RMK A01 T00600020  RH  076%=      5-min Rain = 0
KHA3 171330Z 33008KT 06/02 A3009 RMK A01 T00600020  RH  076%=      5-min Rain = 0
KHA3 171331Z 33009KT 06/02 A3009 RMK A01 T00600021  RH  076%=      5-min Rain = 0
KHA3 171332Z 34008KT 06/02 A3009 RMK A01 T00600021  RH  076%=      5-min Rain = 0
KHA3 171333Z 34009KT 06/02 A301 RMK A01 T00610022  RH  076%=      5-min Rain = 0
KHA3 171334Z 33008KT 06/02 A301 RMK A01 T00620022  RH  076%=      5-min Rain = 0
KHA3 171335Z 34008KT 06/02 A301 RMK A01 T00620022  RH  076%=      5-min Rain = 0
KHA3 171336Z 34008KT 06/02 A301 RMK A01 T00620022  RH  076%=      5-min Rain = 0
KHA3 171337Z 34009KT 06/02 A301 RMK A01 T00620023  RH  076%=      5-min Rain = 0
KHA3 171338Z 34008KT 06/02 A301 RMK A01 T00620023  RH  076%=      5-min Rain = 0
KHA3 171339Z 34007KT 06/02 A301 RMK A01 T00630023  RH  076%=      5-min Rain = 0
KHA3 171340Z 34009KT 06/02 A301 RMK A01 T00640024  RH  076%=      5-min Rain = 0
KHA3 171341Z 34009KT 06/02 A301 RMK A01 T00640024  RH  075%=      5-min Rain = 0
KHA3 171342Z 34010KT 07/02 A301 RMK A01 T00660024  RH  075%=      5-min Rain = 0
KHA3 171343Z 34010KT 07/02 A301 RMK A01 T00690024  RH  073%=      5-min Rain = 0
KHA3 171344Z 34010KT 07/03 A301 RMK A01 T00710025  RH  072%=      5-min Rain = 0
KHA3 171345Z 34009KT 07/03 A301 RMK A01 T00720025  RH  072%=      5-min Rain = 0
KHA3 171346Z 34009KT 07/03 A301 RMK A01 T00710025  RH  072%=      5-min Rain = 0
KHA3 171347Z 34010KT 07/03 A301 RMK A01 T00720025  RH  072%=      5-min Rain = 0
KHA3 171348Z 34009KT 07/03 A301 RMK A01 T00730025  RH  072%=      5-min Rain = 0
KHA3 171349Z 34009KT 07/03 A301 RMK A01 T00730026  RH  072%=      5-min Rain = 0
KHA3 171350Z 34010KT 07/03 A301 RMK A01 T00730025  RH  072%=      5-min Rain = 0
KHA3 171351Z 34010KT 07/03 A301 RMK A01 T00740025  RH  071%=      5-min Rain = 0
KHA3 171352Z 34011KT 08/03 A301 RMK A01 T00760025  RH  070%=      5-min Rain = 0
KHA3 171353Z 34010KT 08/03 A301 RMK A01 T00770025  RH  069%=      5-min Rain = 0
KHA3 171354Z 35009KT 08/03 A3011 RMK A01 T00770025  RH  069%=      5-min Rain = 0
KHA3 171355Z 35011KT 08/03 A3011 RMK A01 T00780025  RH  069%=      5-min Rain = 0
KHA3 171356Z 34010KT 08/02 A3011 RMK A01 T00790024  RH  068%=      5-min Rain = 0
KHA3 171357Z 35009KT 08/03 A3011 RMK A01 T00790025  RH  068%=      5-min Rain = 0
KHA3 171358Z 35011KT 08/03 A3011 RMK A01 T00790025  RH  069%=      5-min Rain = 0
KHA3 171359Z 35010KT 08/03 A3011 RMK A01 T00800025  RH  068%=      5-min Rain = 0
KHA3 171400Z 34010KT 08/03 A3011 RMK A01 T00810025  RH  068%=      5-min Rain = 0
KHA3 171401Z 35011KT 08/03 A3011 RMK A01 T00820025  RH  068%=      5-min Rain = 0
KHA3 171402Z 35011KT 08/03 A3011 RMK A01 T00820025  RH  067%=      5-min Rain = 0
KHA3 171403Z 35011KT 08/03 A3011 RMK A01 T00830025  RH  067%=      5-min Rain = 0
KHA3 171404Z 35011KT 08/03 A3011 RMK A01 T00840025  RH  067%=      5-min Rain = 0
KHA3 171405Z 35010KT 08/03 A3011 RMK A01 T00840026  RH  067%=      5-min Rain = 0
KHA3 171406Z 35012KT 09/03 A3011 RMK A01 T00850025  RH  066%=      5-min Rain = 0
KHA3 171407Z 35010KT 09/03 A3011 RMK A01 T00860025  RH  066%=      5-min Rain = 0
KHA3 171408Z 35011KT 09/03 A3011 RMK A01 T00850025  RH  066%=      5-min Rain = 0
KHA3 171409Z 35011KT 09/03 A3011 RMK A01 T00860026  RH  066%=      5-min Rain = 0
KHA3 171410Z 35010KT 09/03 A3011 RMK A01 T00870026  RH  065%=      5-min Rain = 0
KHA3 171411Z 35011KT 09/03 A3011 RMK A01 T00870025  RH  065%=      5-min Rain = 0
KHA3 171412Z 35011KT 09/03 A3011 RMK A01 T00880025  RH  065%=      5-min Rain = 0
KHA3 171413Z 35011KT 09/03 A3012 RMK A01 T00890025  RH  064%=      5-min Rain = 0
KHA3 171414Z 35011KT 09/03 A3012 RMK A01 T00890025  RH  064%=      5-min Rain = 0
KHA3 171415Z 35011KT 09/03 A3012 RMK A01 T00900025  RH  064%=      5-min Rain = 0
KHA3 171416Z 35012KT 09/02 A3012 RMK A01 T00900024  RH  063%=      5-min Rain = 0
KHA3 171417Z 35012KT 09/02 A3012 RMK A01 T00910024  RH  063%=      5-min Rain = 0
KHA3 171418Z 36011KT 09/03 A3012 RMK A01 T00920025  RH  063%=      5-min Rain = 0
KHA3 171419Z 35012KT 09/03 A3012 RMK A01 T00920025  RH  063%=      5-min Rain = 0
KHA3 171420Z 35011KT 09/03 A3012 RMK A01 T00930025  RH  062%=      5-min Rain = 0
KHA3 171421Z 35012KT 09/03 A3012 RMK A01 T00930026  RH  063%=      5-min Rain = 0
KHA3 171422Z 35012KT 09/03 A3012 RMK A01 T00940026  RH  062%=      5-min Rain = 0
KHA3 171423Z 35012KT 09/03 A3012 RMK A01 T00940026  RH  062%=      5-min Rain = 0
KHA3 171424Z 35011KT 10/03 A3012 RMK A01 T00950026  RH  062%=      5-min Rain = 0
KHA3 171425Z 35011KT 10/03 A3012 RMK A01 T00950026  RH  062%=      5-min Rain = 0
KHA3 171426Z 35012KT 10/03 A3012 RMK A01 T00960026  RH  062%=      5-min Rain = 0
KHA3 171427Z 35011KT 10/03 A3012 RMK A01 T00970026  RH  061%=      5-min Rain = 0
KHA3 171428Z 35011KT 10/03 A3012 RMK A01 T00970026  RH  061%=      5-min Rain = 0
KHA3 171429Z 35012KT 10/03 A3012 RMK A01 T00970026  RH  061%=      5-min Rain = 0
KHA3 171430Z 35012KT 10/03 A3012 RMK A01 T00980027  RH  061%=      5-min Rain = 0
KHA3 171431Z 35012KT 10/03 A3012 RMK A01 T00990026  RH  061%=      5-min Rain = 0
KHA3 171432Z 35011KT 10/03 A3012 RMK A01 T00990026  RH  060%=      5-min Rain = 0
KHA3 171433Z 35012KT 10/03 A3012 RMK A01 T01000026  RH  060%=      5-min Rain = 0
KHA3 171434Z 35014KT 10/03 A3012 RMK A01 T01000026  RH  060%=      5-min Rain = 0
KHA3 171435Z 35015KT 10/03 A3012 RMK A01 T01010026  RH  059%=      5-min Rain = 0
KHA3 171436Z 35016KT 10/03 A3012 RMK A01 T01010025  RH  059%=      5-min Rain = 0
KHA3 171437Z 35013KT 10/03 A3012 RMK A01 T01020026  RH  059%=      5-min Rain = 0
KHA3 171438Z 35015KT 10/03 A3012 RMK A01 T01020027  RH  059%=      5-min Rain = 0
KHA3 171439Z 36015KT 10/03 A3012 RMK A01 T01030026  RH  059%=      5-min Rain = 0
KHA3 171440Z 35015KT 10/03 A3012 RMK A01 T01030026  RH  059%=      5-min Rain = 0
KHA3 171441Z 35014KT 10/03 A3012 RMK A01 T01040027  RH  059%=      5-min Rain = 0
KHA3 171442Z 35016KT 11/03 A3012 RMK A01 T01050027  RH  058%=      5-min Rain = 0
KHA3 171443Z 36016KT 11/03 A3012 RMK A01 T01050026  RH  058%=      5-min Rain = 0
KHA3 171444Z 35015KT 11/03 A3012 RMK A01 T01060027  RH  058%=      5-min Rain = 0
KHA3 171445Z 35015KT 11/03 A3012 RMK A01 T01060027  RH  058%=      5-min Rain = 0
KHA3 171446Z 35015KT 11/03 A3013 RMK A01 T01060027  RH  058%=      5-min Rain = 0
KHA3 171447Z 35018KT 11/03 A3013 RMK A01 T01070027  RH  058%=      5-min Rain = 0
KHA3 171448Z 35017KT 11/03 A3013 RMK A01 T01070026  RH  057%=      5-min Rain = 0
KHA3 171449Z 36017KT 11/03 A3013 RMK A01 T01070026  RH  057%=      5-min Rain = 0
KHA3 171450Z 36017KT 11/03 A3013 RMK A01 T01080027  RH  057%=      5-min Rain = 0
KHA3 171451Z 35012KT 11/03 A3013 RMK A01 T01090028  RH  057%=      5-min Rain = 0
KHA3 171452Z 35017KT 11/03 A3013 RMK A01 T01100029  RH  057%=      5-min Rain = 0
KHA3 171453Z 36015KT 11/03 A3013 RMK A01 T01110028  RH  056%=      5-min Rain = 0
KHA3 171454Z 35018G23KT 11/03 A3013 RMK A01 T01110028  RH  057%=      5-min Rain = 0
KHA3 171455Z 36015G20KT 11/03 A3013 RMK A01 T01120027  RH  056%=      5-min Rain = 0
KHA3 171456Z 35017KT 11/03 A3013 RMK A01 T01120028  RH  056%=      5-min Rain = 0
KHA3 171457Z 36018G23KT 11/03 A3013 RMK A01 T01130027  RH  056%=      5-min Rain = 0
KHA3 171458Z 36018KT 11/03 A3013 RMK A01 T01130027  RH  055%=      5-min Rain = 0
KHA3 171459Z 00018KT 11/03 A3013 RMK A01 T01130028  RH  056%=      5-min Rain = 0
KHA3 171500Z 00020KT 11/03 A3013 RMK A01 T01130028  RH  056%=      5-min Rain = 0
KHA3 171501Z 36020KT 11/03 A3013 RMK A01 T01140027  RH  055%=      5-min Rain = 0
KHA3 171502Z 00019KT 11/03 A3013 RMK A01 T01140027  RH  055%=      5-min Rain = 0
KHA3 171503Z 36017KT 11/03 A3013 RMK A01 T01140027  RH  055%=      5-min Rain = 0
KHA3 171504Z 35020G26KT 11/03 A3013 RMK A01 T01140028  RH  055%=      5-min Rain = 0
KHA3 171505Z 35022G27KT 12/03 A3013 RMK A01 T01150027  RH  055%=      5-min Rain = 0
KHA3 171506Z 36022KT 12/03 A3013 RMK A01 T01150027  RH  055%=      5-min Rain = 0
KHA3 171507Z 00019G25KT 12/03 A3013 RMK A01 T01150027  RH  055%=      5-min Rain = 0
KHA3 171508Z 36017KT 12/03 A3013 RMK A01 T01160028  RH  055%=      5-min Rain = 0
KHA3 171509Z 36017KT 12/03 A3013 RMK A01 T01160028  RH  055%=      5-min Rain = 0
KHA3 171510Z 00018KT 12/03 A3013 RMK A01 T01170029  RH  055%=      5-min Rain = 0
KHA3 171511Z 00018KT 12/03 A3013 RMK A01 T01180028  RH  054%=      5-min Rain = 0
KHA3 171512Z 00017KT 12/03 A3013 RMK A01 T01180028  RH  054%=      5-min Rain = 0
KHA3 171513Z 01016KT 12/03 A3013 RMK A01 T01180028  RH  054%=      5-min Rain = 0
KHA3 171514Z 01014KT 12/03 A3013 RMK A01 T01190029  RH  054%=      5-min Rain = 0
KHA3 171515Z 36016G21KT 12/03 A3013 RMK A01 T01210030  RH  054%=      5-min Rain = 0
KHA3 171516Z 00020KT 12/03 A3013 RMK A01 T01220029  RH  053%=      5-min Rain = 0
KHA3 171517Z 35021KT 12/03 A3012 RMK A01 T01210028  RH  053%=      5-min Rain = 0
KHA3 171518Z 36019KT 12/03 A3013 RMK A01 T01200027  RH  053%=      5-min Rain = 0
KHA3 171519Z 36019G25KT 12/03 A3013 RMK A01 T01190028  RH  053%=      5-min Rain = 0
KHA3 171520Z 36022G27KT 12/03 A3013 RMK A01 T01200028  RH  053%=      5-min Rain = 0
KHA3 171521Z 01017KT 12/03 A3013 RMK A01 T01200028  RH  053%=      5-min Rain = 0
KHA3 171522Z 01017G22KT 12/03 A3013 RMK A01 T01210029  RH  053%=      5-min Rain = 0
KHA3 171523Z 01021KT 12/03 A3013 RMK A01 T01220029  RH  053%=      5-min Rain = 0
KHA3 171524Z 00020KT 12/03 A3013 RMK A01 T01220028  RH  053%=      5-min Rain = 0
KHA3 171525Z 00019KT 12/03 A3013 RMK A01 T01220029  RH  053%=      5-min Rain = 0
KHA3 171526Z 00022KT 12/03 A3013 RMK A01 T01230029  RH  052%=      5-min Rain = 0
KHA3 171527Z 00020G25KT 12/03 A3013 RMK A01 T01230028  RH  052%=      5-min Rain = 0
KHA3 171528Z 01019KT 12/03 A3013 RMK A01 T01230029  RH  053%=      5-min Rain = 0
KHA3 171529Z 01021KT 12/03 A3013 RMK A01 T01240029  RH  052%=      5-min Rain = 0
KHA3 171530Z 01019KT 12/03 A3013 RMK A01 T01240028  RH  052%=      5-min Rain = 0
KHA3 171531Z 01018KT 12/03 A3013 RMK A01 T01230028  RH  052%=      5-min Rain = 0
KHA3 171532Z 00016KT 13/03 A3013 RMK A01 T01250031  RH  053%=      5-min Rain = 0
KHA3 171533Z 01022KT 13/03 A3013 RMK A01 T01260029  RH  052%=      5-min Rain = 0
KHA3 171534Z 01017KT 13/03 A3013 RMK A01 T01250029  RH  052%=      5-min Rain = 0
KHA3 171535Z 01022KT 13/03 A3013 RMK A01 T01260028  RH  051%=      5-min Rain = 0
KHA3 171536Z 01020G25KT 13/03 A3013 RMK A01 T01250029  RH  052%=      5-min Rain = 0
KHA3 171537Z 01019KT 13/03 A3013 RMK A01 T01250028  RH  052%=      5-min Rain = 0
KHA3 171538Z 01018KT 13/03 A3013 RMK A01 T01250029  RH  052%=      5-min Rain = 0
KHA3 171539Z 01019KT 13/03 A3013 RMK A01 T01260030  RH  052%=      5-min Rain = 0
KHA3 171540Z 00020G25KT 13/03 A3013 RMK A01 T01280030  RH  051%=      5-min Rain = 0
KHA3 171541Z 01020KT 13/03 A3013 RMK A01 T01280029  RH  051%=      5-min Rain = 0
KHA3 171542Z 00020G26KT 13/03 A3013 RMK A01 T01270029  RH  051%=      5-min Rain = 0
KHA3 171543Z 00023KT 13/03 A3013 RMK A01 T01280029  RH  051%=      5-min Rain = 0
KHA3 171544Z 00023KT 13/03 A3013 RMK A01 T01280028  RH  051%=      5-min Rain = 0
KHA3 171545Z 01020KT 13/03 A3013 RMK A01 T01280029  RH  051%=      5-min Rain = 0
KHA3 171546Z 00020KT 13/03 A3013 RMK A01 T01270028  RH  051%=      5-min Rain = 0
KHA3 171547Z 01024KT 13/03 A3013 RMK A01 T01280029  RH  051%=      5-min Rain = 0
KHA3 171548Z 01022KT 13/03 A3013 RMK A01 T01280029  RH  051%=      5-min Rain = 0
KHA3 171549Z 01022KT 13/03 A3013 RMK A01 T01290029  RH  051%=      5-min Rain = 0
KHA3 171550Z 01022G27KT 13/03 A3013 RMK A01 T01300029  RH  050%=      5-min Rain = 0
KHA3 171551Z 01022G27KT 13/03 A3013 RMK A01 T01290029  RH  050%=      5-min Rain = 0
KHA3 171552Z 01021KT 13/03 A3013 RMK A01 T01290028  RH  050%=      5-min Rain = 0
KHA3 171553Z 01020G26KT 13/03 A3013 RMK A01 T01290029  RH  051%=      5-min Rain = 0
KHA3 171554Z 01021G27KT 13/03 A3013 RMK A01 T01300029  RH  050%=      5-min Rain = 0
KHA3 171555Z 02023KT 13/03 A3013 RMK A01 T01310029  RH  050%=      5-min Rain = 0
KHA3 171556Z 01019G25KT 13/03 A3013 RMK A01 T01300029  RH  050%=      5-min Rain = 0
KHA3 171557Z 01019KT 13/03 A3013 RMK A01 T01310030  RH  050%=      5-min Rain = 0
KHA3 171558Z 01022KT 13/03 A3013 RMK A01 T01330030  RH  050%=      5-min Rain = 0
KHA3 171559Z 01018G23KT 13/03 A3013 RMK A01 T01320029  RH  049%=      5-min Rain = 0
KHA3 171600Z 00021G26KT 13/03 A3013 RMK A01 T01320030  RH  050%=      5-min Rain = 0
KHA3 171601Z 36020KT 13/03 A3013 RMK A01 T01330029  RH  049%=      5-min Rain = 0
KHA3 171602Z 00022KT 13/03 A3013 RMK A01 T01340029  RH  049%=      5-min Rain = 0
KHA3 171603Z 35022KT 13/03 A3013 RMK A01 T01330028  RH  049%=      5-min Rain = 0
KHA3 171604Z 36021G26KT 13/03 A3013 RMK A01 T01320028  RH  049%=      5-min Rain = 0
KHA3 171605Z 00021KT 13/03 A3013 RMK A01 T01330029  RH  050%=      5-min Rain = 0
KHA3 171606Z 00018KT 13/03 A3013 RMK A01 T01340030  RH  049%=      5-min Rain = 0
KHA3 171607Z 35019KT 14/03 A3013 RMK A01 T01360031  RH  049%=      5-min Rain = 0
KHA3 171608Z 01019G24KT 14/03 A3013 RMK A01 T01360030  RH  049%=      5-min Rain = 0
KHA3 171609Z 00021KT 14/03 A3013 RMK A01 T01360029  RH  048%=      5-min Rain = 0
KHA3 171610Z 01021KT 14/03 A3013 RMK A01 T01360029  RH  048%=      5-min Rain = 0
KHA3 171611Z 01019KT 14/03 A3013 RMK A01 T01370030  RH  048%=      5-min Rain = 0
KHA3 171612Z 01017G22KT 14/03 A3013 RMK A01 T01370029  RH  048%=      5-min Rain = 0
KHA3 171613Z 01016KT 14/03 A3013 RMK A01 T01380031  RH  049%=      5-min Rain = 0
KHA3 171614Z 01016KT 14/03 A3013 RMK A01 T01400031  RH  048%=      5-min Rain = 0
KHA3 171615Z 00020KT 14/03 A3013 RMK A01 T01410031  RH  047%=      5-min Rain = 0
KHA3 171616Z 00020KT 14/03 A3013 RMK A01 T01400029  RH  047%=      5-min Rain = 0
KHA3 171617Z 35021KT 14/03 A3013 RMK A01 T01390029  RH  048%=      5-min Rain = 0
KHA3 171618Z 01020G25KT 14/03 A3013 RMK A01 T01380029  RH  048%=      5-min Rain = 0
KHA3 171619Z 01019KT 14/03 A3013 RMK A01 T01370029  RH  048%=      5-min Rain = 0
KHA3 171620Z 01018KT 14/03 A3013 RMK A01 T01380030  RH  048%=      5-min Rain = 0
KHA3 171621Z 00015KT 14/03 A3013 RMK A01 T01410032  RH  048%=      5-min Rain = 0
KHA3 171622Z 00015KT 14/03 A3013 RMK A01 T01440033  RH  047%=      5-min Rain = 0
KHA3 171623Z 36018KT 15/03 A3013 RMK A01 T01450032  RH  046%=      5-min Rain = 0
KHA3 171624Z 36018KT 14/03 A3013 RMK A01 T01440030  RH  046%=      5-min Rain = 0
KHA3 171625Z 36019KT 14/03 A3013 RMK A01 T01430031  RH  047%=      5-min Rain = 0
KHA3 171626Z 00018KT 14/03 A3013 RMK A01 T01420030  RH  047%=      5-min Rain = 0
KHA3 171627Z 00016G21KT 14/03 A3013 RMK A01 T01420031  RH  047%=      5-min Rain = 0
KHA3 171628Z 01019KT 14/03 A3013 RMK A01 T01440031  RH  047%=      5-min Rain = 0
KHA3 171629Z 00019KT 14/03 A3013 RMK A01 T01440030  RH  046%=      5-min Rain = 0
KHA3 171630Z 36019KT 14/03 A3013 RMK A01 T01430029  RH  046%=      5-min Rain = 0
KHA3 171631Z 01016KT 14/03 A3013 RMK A01 T01430031  RH  047%=      5-min Rain = 0
KHA3 171632Z 01015G22KT 15/03 A3013 RMK A01 T01460032  RH  046%=      5-min Rain = 0
KHA3 171633Z 00016KT 15/03 A3013 RMK A01 T01460030  RH  046%=      5-min Rain = 0
KHA3 171634Z 00014KT 15/03 A3013 RMK A01 T01460032  RH  046%=      5-min Rain = 0
KHA3 171635Z 01019KT 15/03 A3013 RMK A01 T01480032  RH  046%=      5-min Rain = 0
KHA3 171636Z 02019KT 15/03 A3012 RMK A01 T01460029  RH  045%=      5-min Rain = 0
KHA3 171637Z 02018KT 14/03 A3012 RMK A01 T01440028  RH  046%=      5-min Rain = 0
KHA3 171638Z 02017KT 14/03 A3012 RMK A01 T01430030  RH  046%=      5-min Rain = 0
KHA3 171639Z 02017KT 14/03 A3012 RMK A01 T01430030  RH  046%=      5-min Rain = 0
KHA3 171640Z 01017KT 14/03 A3013 RMK A01 T01440030  RH  046%=      5-min Rain = 0
KHA3 171641Z 36019KT 15/03 A3013 RMK A01 T01450030  RH  046%=      5-min Rain = 0
KHA3 171642Z 00020KT 15/03 A3013 RMK A01 T01460029  RH  046%=      5-min Rain = 0
KHA3 171643Z 00020KT 15/03 A3013 RMK A01 T01450029  RH  046%=      5-min Rain = 0
KHA3 171644Z 00020KT 14/03 A3013 RMK A01 T01440029  RH  046%=      5-min Rain = 0
KHA3 171645Z 00019KT 14/03 A3013 RMK A01 T01430029  RH  046%=      5-min Rain = 0
KHA3 171646Z 00019KT 14/03 A3013 RMK A01 T01430029  RH  046%=      5-min Rain = 0
KHA3 171647Z 01017KT 14/03 A3013 RMK A01 T01440029  RH  046%=      5-min Rain = 0
KHA3 171648Z 00015KT 15/03 A3013 RMK A01 T01460031  RH  046%=      5-min Rain = 0
KHA3 171649Z 00015G22KT 15/03 A3013 RMK A01 T01480031  RH  045%=      5-min Rain = 0
KHA3 171650Z 36021KT 15/03 A3013 RMK A01 T01480031  RH  045%=      5-min Rain = 0
KHA3 171651Z 00017KT 15/03 A3013 RMK A01 T01470029  RH  045%=      5-min Rain = 0
KHA3 171652Z 00016KT 15/03 A3013 RMK A01 T01470030  RH  045%=      5-min Rain = 0
KHA3 171653Z 36018KT 15/03 A3013 RMK A01 T01480030  RH  045%=      5-min Rain = 0
KHA3 171654Z 00017G22KT 15/03 A3013 RMK A01 T01490030  RH  045%=      5-min Rain = 0
KHA3 171655Z 36018KT 15/03 A3013 RMK A01 T01500030  RH  044%=      5-min Rain = 0
KHA3 171656Z 00019KT 15/03 A3013 RMK A01 T01500030  RH  045%=      5-min Rain = 0
KHA3 171657Z 00019KT 15/03 A3013 RMK A01 T01500030  RH  045%=      5-min Rain = 0
KHA3 171658Z 01018KT 15/03 A3013 RMK A01 T01490029  RH  045%=      5-min Rain = 0
KHA3 171659Z 36018KT 15/03 A3013 RMK A01 T01490030  RH  045%=      5-min Rain = 0
KHA3 171700Z 00018KT 15/03 A3013 RMK A01 T01490030  RH  045%=      5-min Rain = 0
KHA3 171701Z 01019KT 15/03 A3013 RMK A01 T01490029  RH  044%=      5-min Rain = 0
KHA3 171702Z 00019KT 15/03 A3013 RMK A01 T01480028  RH  044%=      5-min Rain = 0
KHA3 171703Z 00019KT 15/03 A3013 RMK A01 T01480029  RH  045%=      5-min Rain = 0
KHA3 171704Z 01017KT 15/03 A3013 RMK A01 T01490030  RH  045%=      5-min Rain = 0
KHA3 171705Z 01018KT 15/03 A3013 RMK A01 T01520031  RH  044%=      5-min Rain = 0
KHA3 171706Z 01017KT 15/03 A3012 RMK A01 T01530030  RH  044%=      5-min Rain = 0
KHA3 171707Z 00017G23KT 15/03 A3012 RMK A01 T01530031  RH  044%=      5-min Rain = 0
KHA3 171708Z 36018KT 15/03 A3012 RMK A01 T01540030  RH  043%=      5-min Rain = 0
KHA3 171709Z 35018KT 15/03 A3012 RMK A01 T01520029  RH  043%=      5-min Rain = 0
KHA3 171710Z 01015KT 15/03 A3012 RMK A01 T01500028  RH  044%=      5-min Rain = 0
KHA3 171711Z 01014G19KT 15/03 A3012 RMK A01 T01500029  RH  044%=      5-min Rain = 0
KHA3 171712Z 01017KT 15/03 A3012 RMK A01 T01510030  RH  044%=      5-min Rain = 0
KHA3 171713Z 00018KT 15/03 A3012 RMK A01 T01510029  RH  044%=      5-min Rain = 0
KHA3 171714Z 00020KT 15/03 A3012 RMK A01 T01510029  RH  044%=      5-min Rain = 0
KHA3 171715Z 00018KT 15/03 A3012 RMK A01 T01520029  RH  044%=      5-min Rain = 0
KHA3 171716Z 01016KT 15/03 A3012 RMK A01 T01530031  RH  044%=      5-min Rain = 0
KHA3 171717Z 02015KT 15/03 A3012 RMK A01 T01540030  RH  043%=      5-min Rain = 0
KHA3 171718Z 00016KT 15/03 A3012 RMK A01 T01540030  RH  043%=      5-min Rain = 0
KHA3 171719Z 01019G24KT 16/03 A3012 RMK A01 T01550030  RH  043%=      5-min Rain = 0
KHA3 171720Z 00020KT 16/03 A3012 RMK A01 T01560029  RH  043%=      5-min Rain = 0
KHA3 171721Z 00020KT 16/03 A3012 RMK A01 T01560028  RH  042%=      5-min Rain = 0
KHA3 171722Z 01018KT 16/03 A3012 RMK A01 T01550028  RH  042%=      5-min Rain = 0
KHA3 171723Z 01018G24KT 16/03 A3012 RMK A01 T01550028  RH  042%=      5-min Rain = 0
KHA3 171724Z 01016G21KT 16/03 A3012 RMK A01 T01560030  RH  043%=      5-min Rain = 0
KHA3 171725Z 02018KT 16/03 A3012 RMK A01 T01590030  RH  042%=      5-min Rain = 0
KHA3 171726Z 02016KT 16/03 A3012 RMK A01 T01560028  RH  042%=      5-min Rain = 0
KHA3 171727Z 02015KT 16/03 A3012 RMK A01 T01550029  RH  043%=      5-min Rain = 0
KHA3 171728Z 01016G21KT 16/03 A3012 RMK A01 T01580032  RH  043%=      5-min Rain = 0
KHA3 171729Z 01017KT 16/03 A3012 RMK A01 T01610030  RH  041%=      5-min Rain = 0
KHA3 171730Z 01015KT 16/03 A3012 RMK A01 T01590029  RH  042%=      5-min Rain = 0
KHA3 171731Z 02016G21KT 16/03 A3012 RMK A01 T01610031  RH  042%=      5-min Rain = 0
KHA3 171732Z 01017KT 16/03 A3011 RMK A01 T01610030  RH  041%=      5-min Rain = 0
KHA3 171733Z 01014KT 16/03 A3012 RMK A01 T01610030  RH  042%=      5-min Rain = 0
KHA3 171734Z 01020KT 16/03 A3011 RMK A01 T01600029  RH  041%=      5-min Rain = 0
KHA3 171735Z 01016KT 16/03 A3012 RMK A01 T01580028  RH  042%=      5-min Rain = 0
KHA3 171736Z 02014KT 16/03 A3011 RMK A01 T01570029  RH  042%=      5-min Rain = 0
KHA3 171737Z 02013KT 16/03 A3011 RMK A01 T01610032  RH  042%=      5-min Rain = 0
KHA3 171738Z 01012KT 16/03 A3012 RMK A01 T01640033  RH  042%=      5-min Rain = 0
KHA3 171739Z 01014KT 17/03 A3011 RMK A01 T01680033  RH  041%=      5-min Rain = 0
KHA3 171740Z 00019G24KT 17/03 A3011 RMK A01 T01680032  RH  040%=      5-min Rain = 0
KHA3 171741Z 01018KT 17/03 A3011 RMK A01 T01650029  RH  040%=      5-min Rain = 0
KHA3 171742Z 01020KT 16/03 A3011 RMK A01 T01620029  RH  041%=      5-min Rain = 0
KHA3 171743Z 01014KT 16/03 A3011 RMK A01 T01610029  RH  041%=      5-min Rain = 0
KHA3 171744Z 01018G23KT 16/03 A3011 RMK A01 T01610030  RH  041%=      5-min Rain = 0
KHA3 171745Z 01017KT 16/03 A3011 RMK A01 T01610030  RH  041%=      5-min Rain = 0
KHA3 171746Z 01017KT 16/03 A3011 RMK A01 T01620030  RH  041%=      5-min Rain = 0
KHA3 171747Z 01018KT 16/03 A3011 RMK A01 T01620029  RH  041%=      5-min Rain = 0
KHA3 171748Z 01016KT 16/03 A3011 RMK A01 T01620030  RH  041%=      5-min Rain = 0
KHA3 171749Z 01014KT 16/03 A3011 RMK A01 T01620030  RH  041%=      5-min Rain = 0
KHA3 171750Z 02013KT 16/03 A3011 RMK A01 T01620031  RH  041%=      5-min Rain = 0
KHA3 171751Z 02012KT 17/03 A3011 RMK A01 T01660033  RH  041%=      5-min Rain = 0
KHA3 171752Z 02017KT 17/03 A3011 RMK A01 T01690032  RH  040%=      5-min Rain = 0
KHA3 171753Z 02015KT 17/03 A3011 RMK A01 T01660029  RH  040%=      5-min Rain = 0
KHA3 171754Z 03016G21KT 16/03 A3011 RMK A01 T01630029  RH  041%=      5-min Rain = 0
KHA3 171755Z 02015G20KT 16/03 A3011 RMK A01 T01630029  RH  041%=      5-min Rain = 0
KHA3 171756Z 36014KT 17/03 A3011 RMK A01 T01650031  RH  041%=      5-min Rain = 0
KHA3 171757Z 00018KT 17/03 A3011 RMK A01 T01660031  RH  040%=      5-min Rain = 0
KHA3 171758Z 00014G19KT 17/03 A3011 RMK A01 T01660031  RH  040%=      5-min Rain = 0
KHA3 171759Z 36015KT 17/03 A3011 RMK A01 T01660032  RH  041%=      5-min Rain = 0
KHA3 171800Z 35015KT 17/03 A3011 RMK A01 T01670031  RH  040%=      5-min Rain = 0
KHA3 171801Z 36016G23KT 16/03 A3011 RMK A01 T01640029  RH  040%=      5-min Rain = 0
KHA3 171802Z 02016G22KT 17/03 A3011 RMK A01 T01650031  RH  041%=      5-min Rain = 0
KHA3 171803Z 01016KT 17/03 A3011 RMK A01 T01680032  RH  040%=      5-min Rain = 0
KHA3 171804Z 01018KT 17/03 A3011 RMK A01 T01690030  RH  039%=      5-min Rain = 0
KHA3 171805Z 01016KT 17/03 A3011 RMK A01 T01670029  RH  040%=      5-min Rain = 0
KHA3 171806Z 01018KT 17/03 A3011 RMK A01 T01660030  RH  040%=      5-min Rain = 0
KHA3 171807Z 02013KT 17/03 A3011 RMK A01 T01660030  RH  040%=      5-min Rain = 0
KHA3 171808Z 02014KT 17/03 A3011 RMK A01 T01680032  RH  040%=      5-min Rain = 0
KHA3 171809Z 02015G20KT 17/03 A3011 RMK A01 T01690030  RH  040%=      5-min Rain = 0
KHA3 171810Z 01015KT 17/03 A3011 RMK A01 T01700031  RH  040%=      5-min Rain = 0
KHA3 171811Z 01015KT 17/03 A3011 RMK A01 T01720033  RH  039%=      5-min Rain = 0
KHA3 171812Z 01015KT 17/03 A3011 RMK A01 T01740032  RH  039%=      5-min Rain = 0
KHA3 171813Z 01016KT 17/03 A3011 RMK A01 T01720029  RH  038%=      5-min Rain = 0
KHA3 171814Z 02018KT 17/03 A3011 RMK A01 T01690029  RH  039%=      5-min Rain = 0
KHA3 171815Z 02016KT 17/03 A3011 RMK A01 T01680029  RH  039%=      5-min Rain = 0
KHA3 171816Z 02017G22KT 17/03 A3011 RMK A01 T01670029  RH  040%=      5-min Rain = 0
KHA3 171817Z 02018KT 17/03 A3011 RMK A01 T01670030  RH  040%=      5-min Rain = 0
KHA3 171818Z 02014KT 17/03 A3011 RMK A01 T01670030  RH  040%=      5-min Rain = 0
KHA3 171819Z 02016KT 17/03 A3011 RMK A01 T01690032  RH  040%=      5-min Rain = 0
KHA3 171820Z 01015KT 17/03 A3011 RMK A01 T01720032  RH  039%=      5-min Rain = 0
KHA3 171821Z 35014KT 17/03 A3011 RMK A01 T01730032  RH  039%=      5-min Rain = 0
KHA3 171822Z 00014G20KT 17/03 A3011 RMK A01 T01730031  RH  039%=      5-min Rain = 0
KHA3 171823Z 01018KT 17/03 A3011 RMK A01 T01720030  RH  039%=      5-min Rain = 0
KHA3 171824Z 01013KT 17/03 A3011 RMK A01 T01700030  RH  039%=      5-min Rain = 0
KHA3 171825Z 35015KT 17/03 A3011 RMK A01 T01720032  RH  039%=      5-min Rain = 0
KHA3 171826Z 34016KT 17/03 A3011 RMK A01 T01710030  RH  039%=      5-min Rain = 0
KHA3 171827Z 01015KT 17/03 A3011 RMK A01 T01700031  RH  040%=      5-min Rain = 0
KHA3 171828Z 01015KT 17/03 A3011 RMK A01 T01720033  RH  039%=      5-min Rain = 0
KHA3 171829Z 01016KT 18/03 A3011 RMK A01 T01750032  RH  039%=      5-min Rain = 0
KHA3 171830Z 01016KT 17/03 A3011 RMK A01 T01740031  RH  038%=      5-min Rain = 0
KHA3 171831Z 00017KT 17/03 A3011 RMK A01 T01710030  RH  039%=      5-min Rain = 0
KHA3 171832Z 34015KT 17/03 A3011 RMK A01 T01700030  RH  039%=      5-min Rain = 0
KHA3 171833Z 36012KT 17/03 A3011 RMK A01 T01700032  RH  040%=      5-min Rain = 0
KHA3 171834Z 35016KT 17/03 A3011 RMK A01 T01730032  RH  039%=      5-min Rain = 0
KHA3 171835Z 35017KT 18/03 A3011 RMK A01 T01750033  RH  039%=      5-min Rain = 0
KHA3 171836Z 35018KT 18/03 A3011 RMK A01 T01750032  RH  038%=      5-min Rain = 0
KHA3 171837Z 35017KT 17/03 A3011 RMK A01 T01720031  RH  039%=      5-min Rain = 0
KHA3 171838Z 35017KT 17/03 A3011 RMK A01 T01710032  RH  039%=      5-min Rain = 0
KHA3 171839Z 35018KT 17/03 A3011 RMK A01 T01730032  RH  039%=      5-min Rain = 0
KHA3 171840Z 35015KT 17/03 A3011 RMK A01 T01710031  RH  039%=      5-min Rain = 0
KHA3 171841Z 36016KT 17/03 A3011 RMK A01 T01700031  RH  039%=      5-min Rain = 0
KHA3 171842Z 00017KT 17/03 A3011 RMK A01 T01710032  RH  039%=      5-min Rain = 0
KHA3 171843Z 36016KT 17/03 A301 RMK A01 T01720032  RH  039%=      5-min Rain = 0
KHA3 171844Z 36015KT 17/03 A301 RMK A01 T01700031  RH  040%=      5-min Rain = 0
KHA3 171845Z 00016KT 17/03 A301 RMK A01 T01690032  RH  040%=      5-min Rain = 0
KHA3 171846Z 01015KT 17/03 A301 RMK A01 T01690032  RH  040%=      5-min Rain = 0
KHA3 171847Z 36016KT 17/03 A301 RMK A01 T01700033  RH  040%=      5-min Rain = 0
KHA3 171848Z 36016G21KT 17/03 A301 RMK A01 T01720033  RH  039%=      5-min Rain = 0
KHA3 171849Z 35019G24KT 17/03 A301 RMK A01 T01730033  RH  039%=      5-min Rain = 0
KHA3 171850Z 00017KT 17/03 A301 RMK A01 T01720033  RH  039%=      5-min Rain = 0
KHA3 171851Z 01017KT 17/03 A301 RMK A01 T01730033  RH  039%=      5-min Rain = 0
KHA3 171852Z 01018KT 17/03 A301 RMK A01 T01730033  RH  039%=      5-min Rain = 0
KHA3 171853Z 02017G22KT 17/03 A301 RMK A01 T01740034  RH  039%=      5-min Rain = 0
KHA3 171854Z 01017KT 17/03 A301 RMK A01 T01740032  RH  039%=      5-min Rain = 0
KHA3 171855Z 01017KT 17/03 A301 RMK A01 T01720032  RH  039%=      5-min Rain = 0
KHA3 171856Z 01015KT 17/03 A301 RMK A01 T01720032  RH  039%=      5-min Rain = 0
KHA3 171857Z 00014KT 17/03 A301 RMK A01 T01710032  RH  039%=      5-min Rain = 0
KHA3 171858Z 01015G20KT 17/03 A301 RMK A01 T01710034  RH  040%=      5-min Rain = 0
KHA3 171859Z 02016KT 17/03 A301 RMK A01 T01740033  RH  039%=      5-min Rain = 0
KHA3 171900Z 01017KT 18/03 A301 RMK A01 T01760033  RH  039%=      5-min Rain = 0
KHA3 171901Z 02017KT 18/04 A301 RMK A01 T01780035  RH  038%=      5-min Rain = 0
KHA3 171902Z 02016KT 18/03 A301 RMK A01 T01780033  RH  038%=      5-min Rain = 0
KHA3 171903Z 01016KT 18/03 A301 RMK A01 T01750032  RH  038%=      5-min Rain = 0
KHA3 171904Z 01017KT 18/03 A301 RMK A01 T01750033  RH  039%=      5-min Rain = 0
KHA3 171905Z 02015KT 17/03 A301 RMK A01 T01740033  RH  039%=      5-min Rain = 0
KHA3 171906Z 02016KT 17/03 A301 RMK A01 T01740032  RH  039%=      5-min Rain = 0
KHA3 171907Z 01015KT 17/03 A301 RMK A01 T01740033  RH  039%=      5-min Rain = 0
KHA3 171908Z 35016KT 18/03 A301 RMK A01 T01750033  RH  039%=      5-min Rain = 0
KHA3 171909Z 36016KT 18/03 A301 RMK A01 T01770033  RH  038%=      5-min Rain = 0
KHA3 171910Z 35013KT 18/03 A301 RMK A01 T01750032  RH  038%=      5-min Rain = 0
KHA3 171911Z 35015KT 18/03 A301 RMK A01 T01750033  RH  039%=      5-min Rain = 0
KHA3 171912Z 35016KT 18/03 A301 RMK A01 T01750032  RH  038%=      5-min Rain = 0
KHA3 171913Z 36017KT 18/03 A301 RMK A01 T01760032  RH  038%=      5-min Rain = 0
KHA3 171914Z 00015KT 18/03 A301 RMK A01 T01760032  RH  038%=      5-min Rain = 0
KHA3 171915Z 00015KT 18/03 A3009 RMK A01 T01760033  RH  039%=      5-min Rain = 0
KHA3 171916Z 01017KT 18/03 A3009 RMK A01 T01780034  RH  038%=      5-min Rain = 0
KHA3 171917Z 02016KT 18/03 A3009 RMK A01 T01790033  RH  038%=      5-min Rain = 0
KHA3 171918Z 02018KT 18/03 A3009 RMK A01 T01770031  RH  038%=      5-min Rain = 0
KHA3 171919Z 01016KT 18/03 A3009 RMK A01 T01750031  RH  038%=      5-min Rain = 0
KHA3 171920Z 01012KT 17/03 A3009 RMK A01 T01740032  RH  039%=      5-min Rain = 0
KHA3 171921Z 01014KT 17/03 A3009 RMK A01 T01740032  RH  039%=      5-min Rain = 0
KHA3 171922Z 01018KT 18/03 A3009 RMK A01 T01770032  RH  038%=      5-min Rain = 0
KHA3 171923Z 01017G22KT 18/03 A3009 RMK A01 T01770031  RH  038%=      5-min Rain = 0
KHA3 171924Z 01019KT 18/03 A3009 RMK A01 T01750031  RH  038%=      5-min Rain = 0
KHA3 171925Z 01015KT 17/03 A3009 RMK A01 T01730030  RH  038%=      5-min Rain = 0
KHA3 171926Z 01011KT 17/03 A3009 RMK A01 T01730031  RH  039%=      5-min Rain = 0
KHA3 171927Z 35014KT 18/03 A3009 RMK A01 T01750033  RH  039%=      5-min Rain = 0
KHA3 171928Z 35013KT 18/03 A3009 RMK A01 T01770033  RH  038%=      5-min Rain = 0
KHA3 171929Z 35013KT 18/03 A3009 RMK A01 T01780033  RH  038%=      5-min Rain = 0
KHA3 171930Z 00016KT 18/03 A3009 RMK A01 T01790033  RH  038%=      5-min Rain = 0
KHA3 171931Z 35013KT 18/03 A3009 RMK A01 T01780032  RH  038%=      5-min Rain = 0
KHA3 171932Z 35014G19KT 18/03 A3009 RMK A01 T01780032  RH  038%=      5-min Rain = 0
KHA3 171933Z 02015KT 18/03 A3009 RMK A01 T01810034  RH  037%=      5-min Rain = 0
KHA3 171934Z 02015KT 18/03 A3008 RMK A01 T01820032  RH  037%=      5-min Rain = 0
KHA3 171935Z 02014KT 18/03 A3008 RMK A01 T01820032  RH  037%=      5-min Rain = 0
KHA3 171936Z 02015KT 18/03 A3008 RMK A01 T01820032  RH  037%=      5-min Rain = 0
KHA3 171937Z 02012KT 18/03 A3008 RMK A01 T01790031  RH  037%=      5-min Rain = 0
KHA3 171938Z 02013KT 18/03 A3008 RMK A01 T01790031  RH  037%=      5-min Rain = 0
KHA3 171939Z 02013KT 18/03 A3008 RMK A01 T01790032  RH  037%=      5-min Rain = 0
KHA3 171940Z 00014KT 18/03 A3008 RMK A01 T01790031  RH  037%=      5-min Rain = 0
KHA3 171941Z 36012KT 18/03 A3008 RMK A01 T01760030  RH  038%=      5-min Rain = 0
KHA3 171942Z 35011KT 18/03 A3008 RMK A01 T01750031  RH  038%=      5-min Rain = 0
KHA3 171943Z 01012KT 18/03 A3007 RMK A01 T01770032  RH  038%=      5-min Rain = 0
KHA3 171944Z 01012G18KT 18/03 A3007 RMK A01 T01800034  RH  038%=      5-min Rain = 0
KHA3 171945Z 02017KT 18/03 A3007 RMK A01 T01830033  RH  037%=      5-min Rain = 0
KHA3 171946Z 02016KT 18/03 A3007 RMK A01 T01800030  RH  037%=      5-min Rain = 0
KHA3 171947Z 02016KT 18/03 A3007 RMK A01 T01780030  RH  037%=      5-min Rain = 0
KHA3 171948Z 02016KT 18/03 A3007 RMK A01 T01770030  RH  037%=      5-min Rain = 0
KHA3 171949Z 02012KT 18/03 A3007 RMK A01 T01770031  RH  038%=      5-min Rain = 0
KHA3 171950Z 02013KT 18/03 A3007 RMK A01 T01770031  RH  038%=      5-min Rain = 0
KHA3 171951Z 02013G18KT 18/03 A3007 RMK A01 T01790034  RH  038%=      5-min Rain = 0
KHA3 171952Z 02015KT 18/03 A3007 RMK A01 T01810032  RH  037%=      5-min Rain = 0
KHA3 171953Z 02012KT 18/03 A3007 RMK A01 T01800032  RH  037%=      5-min Rain = 0
KHA3 171954Z 02015KT 18/03 A3007 RMK A01 T01790032  RH  037%=      5-min Rain = 0
KHA3 171955Z 02015KT 18/03 A3007 RMK A01 T01810032  RH  037%=      5-min Rain = 0
KHA3 171956Z 02012KT 18/03 A3007 RMK A01 T01800032  RH  037%=      5-min Rain = 0
KHA3 171957Z 02012KT 18/03 A3007 RMK A01 T01810033  RH  037%=      5-min Rain = 0
KHA3 171958Z 03012KT 18/03 A3007 RMK A01 T01820032  RH  037%=      5-min Rain = 0
KHA3 171959Z 01010KT 18/03 A3007 RMK A01 T01810032  RH  037%=      5-min Rain = 0
KHA3 172000Z 34012KT 18/03 A3007 RMK A01 T01830033  RH  037%=      5-min Rain = 0
KHA3 172001Z 34010KT 18/03 A3007 RMK A01 T01840032  RH  036%=      5-min Rain = 0
KHA3 172002Z 35010KT 18/03 A3007 RMK A01 T01830032  RH  036%=      5-min Rain = 0
KHA3 172003Z 01013KT 19/03 A3007 RMK A01 T01850033  RH  037%=      5-min Rain = 0
KHA3 172004Z 01012KT 19/03 A3006 RMK A01 T01860032  RH  036%=      5-min Rain = 0
KHA3 172005Z 01011KT 18/03 A3006 RMK A01 T01840032  RH  036%=      5-min Rain = 0
KHA3 172006Z 02009KT 18/03 A3006 RMK A01 T01840030  RH  036%=      5-min Rain = 0
KHA3 172007Z 02009KT 18/03 A3006 RMK A01 T01840032  RH  036%=      5-min Rain = 0
KHA3 172008Z 35008KT 18/03 A3006 RMK A01 T01840031  RH  036%=      5-min Rain = 0
KHA3 172009Z 36012G20KT 19/03 A3006 RMK A01 T01850032  RH  036%=      5-min Rain = 0
KHA3 172010Z 36017KT 19/03 A3006 RMK A01 T01860030  RH  035%=      5-min Rain = 0
KHA3 172011Z 35015KT 18/03 A3006 RMK A01 T01830029  RH  036%=      5-min Rain = 0
KHA3 172012Z 00013KT 18/03 A3006 RMK A01 T01820029  RH  036%=      5-min Rain = 0
KHA3 172013Z 36011KT 18/03 A3006 RMK A01 T01810029  RH  036%=      5-min Rain = 0
KHA3 172014Z 35016KT 18/03 A3006 RMK A01 T01820030  RH  036%=      5-min Rain = 0
KHA3 172015Z 00012KT 19/03 A3006 RMK A01 T01850031  RH  036%=      5-min Rain = 0
KHA3 172016Z 01012KT 19/03 A3006 RMK A01 T01870032  RH  036%=      5-min Rain = 0
KHA3 172017Z 00014KT 19/03 A3006 RMK A01 T01880032  RH  035%=      5-min Rain = 0
KHA3 172018Z 35016KT 19/03 A3006 RMK A01 T01880029  RH  035%=      5-min Rain = 0
KHA3 172019Z 00016KT 19/03 A3006 RMK A01 T01870029  RH  035%=      5-min Rain = 0
KHA3 172020Z 36013KT 19/03 A3006 RMK A01 T01860028  RH  035%=      5-min Rain = 0
KHA3 172021Z 00012KT 18/03 A3006 RMK A01 T01840027  RH  035%=      5-min Rain = 0
KHA3 172022Z 01010KT 18/03 A3006 RMK A01 T01830028  RH  036%=      5-min Rain = 0
KHA3 172023Z 01009KT 18/03 A3006 RMK A01 T01830028  RH  036%=      5-min Rain = 0
KHA3 172024Z 00013KT 18/03 A3006 RMK A01 T01840029  RH  035%=      5-min Rain = 0
KHA3 172025Z 00015KT 19/03 A3006 RMK A01 T01860028  RH  035%=      5-min Rain = 0
KHA3 172026Z 36015KT 19/03 A3006 RMK A01 T01870027  RH  035%=      5-min Rain = 0
KHA3 172027Z 35014KT 19/03 A3006 RMK A01 T01860028  RH  035%=      5-min Rain = 0
KHA3 172028Z 34012KT 19/03 A3006 RMK A01 T01850026  RH  035%=      5-min Rain = 0
KHA3 172029Z 35012KT 18/03 A3006 RMK A01 T01830025  RH  035%=      5-min Rain = 0
KHA3 172030Z 35010KT 18/03 A3006 RMK A01 T01830027  RH  035%=      5-min Rain = 0
KHA3 172031Z 36011KT 18/03 A3005 RMK A01 T01830027  RH  035%=      5-min Rain = 0
KHA3 172032Z 02011KT 19/03 A3005 RMK A01 T01860028  RH  035%=      5-min Rain = 0
KHA3 172033Z 01014KT 19/03 A3005 RMK A01 T01880027  RH  034%=      5-min Rain = 0
KHA3 172034Z 00014KT 19/03 A3005 RMK A01 T01880026  RH  034%=      5-min Rain = 0
KHA3 172035Z 00013KT 19/03 A3005 RMK A01 T01880025  RH  034%=      5-min Rain = 0
KHA3 172036Z 01015KT 19/03 A3005 RMK A01 T01880025  RH  034%=      5-min Rain = 0
KHA3 172037Z 01011KT 19/02 A3005 RMK A01 T01860024  RH  034%=      5-min Rain = 0
KHA3 172038Z 36011KT 19/03 A3005 RMK A01 T01850025  RH  034%=      5-min Rain = 0
KHA3 172039Z 36011KT 19/03 A3005 RMK A01 T01850025  RH  034%=      5-min Rain = 0
KHA3 172040Z 35012KT 18/03 A3005 RMK A01 T01840025  RH  035%=      5-min Rain = 0
KHA3 172041Z 36010KT 18/03 A3005 RMK A01 T01840026  RH  035%=      5-min Rain = 0
KHA3 172042Z 02009KT 18/03 A3005 RMK A01 T01830025  RH  035%=      5-min Rain = 0
KHA3 172043Z 01011KT 18/03 A3005 RMK A01 T01840027  RH  035%=      5-min Rain = 0
KHA3 172044Z 01012KT 19/03 A3005 RMK A01 T01850026  RH  035%=      5-min Rain = 0
KHA3 172045Z 35013KT 19/03 A3005 RMK A01 T01850026  RH  034%=      5-min Rain = 0
KHA3 172046Z 01012KT 19/03 A3005 RMK A01 T01850026  RH  035%=      5-min Rain = 0
KHA3 172047Z 01014KT 19/03 A3005 RMK A01 T01850026  RH  035%=      5-min Rain = 0
KHA3 172048Z 36014KT 19/03 A3005 RMK A01 T01850025  RH  034%=      5-min Rain = 0
KHA3 172049Z 35013KT 19/03 A3005 RMK A01 T01850026  RH  034%=      5-min Rain = 0
KHA3 172050Z 35012KT 18/02 A3005 RMK A01 T01840024  RH  034%=      5-min Rain = 0
KHA3 172051Z 36013KT 19/02 A3005 RMK A01 T01850024  RH  034%=      5-min Rain = 0
KHA3 172052Z 35010KT 19/02 A3005 RMK A01 T01850024  RH  034%=      5-min Rain = 0
KHA3 172053Z 35010KT 18/02 A3005 RMK A01 T01840023  RH  034%=      5-min Rain = 0
KHA3 172054Z 35010KT 19/02 A3005 RMK A01 T01850024  RH  034%=      5-min Rain = 0
KHA3 172055Z 35015G20KT 19/03 A3005 RMK A01 T01850025  RH  034%=      5-min Rain = 0
KHA3 172056Z 35016KT 19/02 A3005 RMK A01 T01850024  RH  034%=      5-min Rain = 0
KHA3 172057Z 36016KT 18/02 A3005 RMK A01 T01840023  RH  034%=      5-min Rain = 0
KHA3 172058Z 35013KT 18/02 A3005 RMK A01 T01830022  RH  034%=      5-min Rain = 0
KHA3 172059Z 00011KT 18/02 A3005 RMK A01 T01830022  RH  034%=      5-min Rain = 0
KHA3 172100Z 01009KT 18/02 A3005 RMK A01 T01830023  RH  034%=      5-min Rain = 0
KHA3 172101Z 02008KT 18/02 A3005 RMK A01 T01840023  RH  034%=      5-min Rain = 0
KHA3 172102Z 36009KT 18/02 A3005 RMK A01 T01840023  RH  034%=      5-min Rain = 0
KHA3 172103Z 02008KT 19/02 A3005 RMK A01 T01850024  RH  034%=      5-min Rain = 0
KHA3 172104Z 03011KT 19/02 A3005 RMK A01 T01870023  RH  034%=      5-min Rain = 0
KHA3 172105Z 01009KT 19/02 A3005 RMK A01 T01850023  RH  034%=      5-min Rain = 0
KHA3 172106Z 36010KT 19/02 A3005 RMK A01 T01850024  RH  034%=      5-min Rain = 0
KHA3 172107Z 01010KT 19/02 A3005 RMK A01 T01870023  RH  034%=      5-min Rain = 0
KHA3 172108Z 01012KT 19/02 A3005 RMK A01 T01880024  RH  033%=      5-min Rain = 0
KHA3 172109Z 36012KT 19/02 A3005 RMK A01 T01890021  RH  033%=      5-min Rain = 0
KHA3 172110Z 00011KT 19/02 A3005 RMK A01 T01870020  RH  033%=      5-min Rain = 0
KHA3 172111Z 00010KT 19/02 A3005 RMK A01 T01850019  RH  033%=      5-min Rain = 0
KHA3 172112Z 00010KT 18/02 A3005 RMK A01 T01840020  RH  033%=      5-min Rain = 0
KHA3 172113Z 36012KT 19/02 A3005 RMK A01 T01860024  RH  034%=      5-min Rain = 0
KHA3 172114Z 36013KT 19/02 A3005 RMK A01 T01880023  RH  033%=      5-min Rain = 0
KHA3 172115Z 01012KT 19/02 A3005 RMK A01 T01860022  RH  033%=      5-min Rain = 0
KHA3 172116Z 36012KT 19/02 A3005 RMK A01 T01850021  RH  033%=      5-min Rain = 0
KHA3 172117Z 34013KT 18/02 A3005 RMK A01 T01840021  RH  034%=      5-min Rain = 0
KHA3 172118Z 36013KT 19/02 A3005 RMK A01 T01850022  RH  034%=      5-min Rain = 0
KHA3 172119Z 35014KT 19/02 A3005 RMK A01 T01860023  RH  034%=      5-min Rain = 0
KHA3 172120Z 36014KT 19/02 A3005 RMK A01 T01860021  RH  033%=      5-min Rain = 0
KHA3 172121Z 01010KT 19/02 A3005 RMK A01 T01850022  RH  034%=      5-min Rain = 0
KHA3 172122Z 35008KT 19/02 A3005 RMK A01 T01870023  RH  033%=      5-min Rain = 0
KHA3 172123Z 00009KT 19/02 A3005 RMK A01 T01870022  RH  033%=      5-min Rain = 0
KHA3 172124Z 00013KT 19/02 A3005 RMK A01 T01870021  RH  033%=      5-min Rain = 0
KHA3 172125Z 36012KT 19/02 A3005 RMK A01 T01860020  RH  033%=      5-min Rain = 0
KHA3 172126Z 36013KT 19/02 A3005 RMK A01 T01860020  RH  033%=      5-min Rain = 0
KHA3 172127Z 36015KT 19/02 A3005 RMK A01 T01860018  RH  033%=      5-min Rain = 0
KHA3 172128Z 00014KT 18/02 A3005 RMK A01 T01840019  RH  033%=      5-min Rain = 0
KHA3 172129Z 36010KT 18/02 A3005 RMK A01 T01830018  RH  033%=      5-min Rain = 0
KHA3 172130Z 35010KT 18/02 A3005 RMK A01 T01820019  RH  033%=      5-min Rain = 0
KHA3 172131Z 35012KT 18/02 A3005 RMK A01 T01830020  RH  034%=      5-min Rain = 0
KHA3 172132Z 34010KT 18/02 A3005 RMK A01 T01840020  RH  033%=      5-min Rain = 0
KHA3 172133Z 35009KT 18/02 A3005 RMK A01 T01840021  RH  034%=      5-min Rain = 0
KHA3 172134Z 35009KT 19/02 A3005 RMK A01 T01850021  RH  034%=      5-min Rain = 0
KHA3 172135Z 01009KT 19/02 A3005 RMK A01 T01850021  RH  033%=      5-min Rain = 0
KHA3 172136Z 01012KT 18/02 A3005 RMK A01 T01840020  RH  033%=      5-min Rain = 0
KHA3 172137Z 00012KT 18/02 A3005 RMK A01 T01840019  RH  033%=      5-min Rain = 0
KHA3 172138Z 00011KT 18/02 A3005 RMK A01 T01840020  RH  033%=      5-min Rain = 0
KHA3 172139Z 35012KT 18/02 A3005 RMK A01 T01830019  RH  033%=      5-min Rain = 0
KHA3 172140Z 35010KT 18/02 A3005 RMK A01 T01830019  RH  033%=      5-min Rain = 0
KHA3 172141Z 35010KT 18/02 A3005 RMK A01 T01830020  RH  033%=      5-min Rain = 0
KHA3 172142Z 35009KT 18/02 A3005 RMK A01 T01840020  RH  033%=      5-min Rain = 0
KHA3 172143Z 35009KT 18/02 A3005 RMK A01 T01820019  RH  034%=      5-min Rain = 0
KHA3 172144Z 34010KT 18/02 A3005 RMK A01 T01830021  RH  034%=      5-min Rain = 0
KHA3 172145Z 34012KT 18/02 A3005 RMK A01 T01830020  RH  034%=      5-min Rain = 0
KHA3 172146Z 34010KT 18/02 A3005 RMK A01 T01830020  RH  033%=      5-min Rain = 0
KHA3 172147Z 02011KT 18/02 A3005 RMK A01 T01830020  RH  034%=      5-min Rain = 0
KHA3 172148Z 01009KT 18/02 A3005 RMK A01 T01830020  RH  034%=      5-min Rain = 0
KHA3 172149Z 01008KT 18/02 A3005 RMK A01 T01830021  RH  034%=      5-min Rain = 0
KHA3 172150Z 36007KT 18/02 A3005 RMK A01 T01820022  RH  034%=      5-min Rain = 0
KHA3 172151Z 01006KT 18/02 A3005 RMK A01 T01820020  RH  034%=      5-min Rain = 0
KHA3 172152Z 01007KT 18/02 A3005 RMK A01 T01820020  RH  034%=      5-min Rain = 0
KHA3 172153Z 00008KT 18/02 A3005 RMK A01 T01830020  RH  034%=      5-min Rain = 0
KHA3 172154Z 01007KT 18/02 A3005 RMK A01 T01830020  RH  034%=      5-min Rain = 0
KHA3 172155Z 36010KT 18/02 A3005 RMK A01 T01830021  RH  034%=      5-min Rain = 0
KHA3 172156Z 35011KT 18/02 A3005 RMK A01 T01840020  RH  033%=      5-min Rain = 0
KHA3 172157Z 35008KT 18/02 A3005 RMK A01 T01830019  RH  033%=      5-min Rain = 0
KHA3 172158Z 00009KT 18/02 A3005 RMK A01 T01810019  RH  034%=      5-min Rain = 0
KHA3 172159Z 35009KT 18/02 A3005 RMK A01 T01810019  RH  034%=      5-min Rain = 0
KHA3 172200Z 36008KT 18/02 A3005 RMK A01 T01820019  RH  034%=      5-min Rain = 0
KHA3 172201Z 00010KT 18/02 A3005 RMK A01 T01820019  RH  033%=      5-min Rain = 0
KHA3 172202Z 00008KT 18/02 A3005 RMK A01 T01820017  RH  033%=      5-min Rain = 0
KHA3 172203Z 36007KT 18/02 A3005 RMK A01 T01810018  RH  033%=      5-min Rain = 0
KHA3 172204Z 01009KT 18/02 A3005 RMK A01 T01810018  RH  034%=      5-min Rain = 0
KHA3 172205Z 01010KT 18/02 A3005 RMK A01 T01810017  RH  033%=      5-min Rain = 0
KHA3 172206Z 01010KT 18/02 A3005 RMK A01 T01810017  RH  033%=      5-min Rain = 0
KHA3 172207Z 36010KT 18/02 A3005 RMK A01 T01810017  RH  033%=      5-min Rain = 0
KHA3 172208Z 36011KT 18/02 A3005 RMK A01 T01800016  RH  033%=      5-min Rain = 0
KHA3 172209Z 00010KT 18/02 A3005 RMK A01 T01790016  RH  033%=      5-min Rain = 0
KHA3 172210Z 35010KT 18/02 A3005 RMK A01 T01800017  RH  034%=      5-min Rain = 0
KHA3 172211Z 36011KT 18/02 A3005 RMK A01 T01800018  RH  034%=      5-min Rain = 0
KHA3 172212Z 36010KT 18/02 A3005 RMK A01 T01790018  RH  034%=      5-min Rain = 0
KHA3 172213Z 35009KT 18/02 A3005 RMK A01 T01790016  RH  034%=      5-min Rain = 0
KHA3 172214Z 01008KT 18/02 A3005 RMK A01 T01780017  RH  034%=      5-min Rain = 0
KHA3 172215Z 02007KT 18/02 A3005 RMK A01 T01780017  RH  034%=      5-min Rain = 0
KHA3 172216Z 01006KT 18/02 A3005 RMK A01 T01780016  RH  034%=      5-min Rain = 0
KHA3 172217Z 01008KT 18/02 A3005 RMK A01 T01780017  RH  034%=      5-min Rain = 0
KHA3 172218Z 01007KT 18/02 A3005 RMK A01 T01780017  RH  034%=      5-min Rain = 0
KHA3 172219Z 35010KT 18/02 A3005 RMK A01 T01780017  RH  034%=      5-min Rain = 0
KHA3 172220Z 00010KT 18/02 A3005 RMK A01 T01790017  RH  034%=      5-min Rain = 0
KHA3 172221Z 01009KT 18/02 A3005 RMK A01 T01780017  RH  034%=      5-min Rain = 0
KHA3 172222Z 00007KT 18/02 A3005 RMK A01 T01780016  RH  034%=      5-min Rain = 0
KHA3 172223Z 01007KT 18/02 A3005 RMK A01 T01770017  RH  034%=      5-min Rain = 0
KHA3 172224Z 02010KT 18/02 A3005 RMK A01 T01780016  RH  034%=      5-min Rain = 0
KHA3 172225Z 01011KT 18/01 A3005 RMK A01 T01780014  RH  033%=      5-min Rain = 0
KHA3 172226Z 01009KT 18/02 A3005 RMK A01 T01770015  RH  033%=      5-min Rain = 0
KHA3 172227Z 01010KT 18/01 A3005 RMK A01 T01760014  RH  034%=      5-min Rain = 0
KHA3 172228Z 01009KT 18/01 A3005 RMK A01 T01760014  RH  034%=      5-min Rain = 0
KHA3 172229Z 01009KT 18/01 A3005 RMK A01 T01750014  RH  034%=      5-min Rain = 0
KHA3 172230Z 36009KT 18/01 A3005 RMK A01 T01750014  RH  034%=      5-min Rain = 0
KHA3 172231Z 36007KT 18/01 A3005 RMK A01 T01750014  RH  034%=      5-min Rain = 0
KHA3 172232Z 01009KT 17/02 A3005 RMK A01 T01740015  RH  034%=      5-min Rain = 0
KHA3 172233Z 36009KT 17/02 A3005 RMK A01 T01740015  RH  034%=      5-min Rain = 0
KHA3 172234Z 01009KT 17/02 A3005 RMK A01 T01740015  RH  034%=      5-min Rain = 0
KHA3 172235Z 01008KT 17/02 A3005 RMK A01 T01740015  RH  034%=      5-min Rain = 0
KHA3 172236Z 01008KT 17/02 A3005 RMK A01 T01740015  RH  034%=      5-min Rain = 0
KHA3 172237Z 02008KT 17/01 A3005 RMK A01 T01730014  RH  034%=      5-min Rain = 0
KHA3 172238Z 02008KT 17/01 A3005 RMK A01 T01730014  RH  034%=      5-min Rain = 0
KHA3 172239Z 02008KT 17/02 A3005 RMK A01 T01730015  RH  034%=      5-min Rain = 0
KHA3 172240Z 01008KT 17/02 A3005 RMK A01 T01730015  RH  035%=      5-min Rain = 0
KHA3 172241Z 01006KT 17/02 A3005 RMK A01 T01730015  RH  034%=      5-min Rain = 0
KHA3 172242Z 02005KT 17/02 A3005 RMK A01 T01720015  RH  035%=      5-min Rain = 0
KHA3 172243Z 01005KT 17/02 A3006 RMK A01 T01730015  RH  035%=      5-min Rain = 0
KHA3 172244Z 01005KT 17/02 A3006 RMK A01 T01720015  RH  035%=      5-min Rain = 0
KHA3 172245Z 01004KT 17/02 A3006 RMK A01 T01720016  RH  035%=      5-min Rain = 0
KHA3 172246Z 00005KT 17/02 A3006 RMK A01 T01720016  RH  035%=      5-min Rain = 0
KHA3 172247Z 01006KT 17/02 A3006 RMK A01 T01720016  RH  035%=      5-min Rain = 0
KHA3 172248Z 00007KT 17/02 A3006 RMK A01 T01720016  RH  035%=      5-min Rain = 0
KHA3 172249Z 01006KT 17/02 A3006 RMK A01 T01710015  RH  035%=      5-min Rain = 0
KHA3 172250Z 00006KT 17/02 A3006 RMK A01 T01710015  RH  035%=      5-min Rain = 0
KHA3 172251Z 01007KT 17/02 A3006 RMK A01 T01700015  RH  035%=      5-min Rain = 0
KHA3 172252Z 01007KT 17/01 A3006 RMK A01 T01690014  RH  035%=      5-min Rain = 0
KHA3 172253Z 01006KT 17/02 A3006 RMK A01 T01690015  RH  035%=      5-min Rain = 0
KHA3 172254Z 01005KT 17/02 A3006 RMK A01 T01690015  RH  035%=      5-min Rain = 0
KHA3 172255Z 00006KT 17/02 A3006 RMK A01 T01680015  RH  036%=      5-min Rain = 0
KHA3 172256Z 35007KT 17/02 A3006 RMK A01 T01680016  RH  036%=      5-min Rain = 0
KHA3 172257Z 35007KT 17/02 A3006 RMK A01 T01670016  RH  036%=      5-min Rain = 0
KHA3 172258Z 01005KT 17/02 A3006 RMK A01 T01660016  RH  036%=      5-min Rain = 0
KHA3 172259Z 01005KT 17/02 A3006 RMK A01 T01660016  RH  036%=      5-min Rain = 0
KHA3 172300Z 01005KT 17/02 A3006 RMK A01 T01650016  RH  037%=      5-min Rain = 0
KHA3 172301Z 01005KT 16/02 A3006 RMK A01 T01640016  RH  037%=      5-min Rain = 0
KHA3 172302Z 01006KT 16/02 A3006 RMK A01 T01630016  RH  037%=      5-min Rain = 0
KHA3 172303Z 01006KT 16/02 A3006 RMK A01 T01630016  RH  037%=      5-min Rain = 0
KHA3 172304Z 01006KT 16/02 A3006 RMK A01 T01630015  RH  037%=      5-min Rain = 0
KHA3 172305Z 01005KT 16/02 A3006 RMK A01 T01630015  RH  037%=      5-min Rain = 0
KHA3 172306Z 01005KT 16/02 A3006 RMK A01 T01630016  RH  037%=      5-min Rain = 0
KHA3 172307Z 01005KT 16/02 A3006 RMK A01 T01620015  RH  037%=      5-min Rain = 0
KHA3 172308Z 02005KT 16/02 A3006 RMK A01 T01610015  RH  037%=      5-min Rain = 0
KHA3 172309Z 01005KT 16/02 A3006 RMK A01 T01600015  RH  037%=      5-min Rain = 0
KHA3 172310Z 01005KT 16/02 A3006 RMK A01 T01600015  RH  038%=      5-min Rain = 0
KHA3 172311Z 01006KT 16/02 A3006 RMK A01 T01590015  RH  038%=      5-min Rain = 0
KHA3 172312Z 02006KT 16/02 A3006 RMK A01 T01580015  RH  038%=      5-min Rain = 0
KHA3 172313Z 02006KT 16/02 A3006 RMK A01 T01580015  RH  038%=      5-min Rain = 0
KHA3 172314Z 02005KT 16/01 A3006 RMK A01 T01570014  RH  038%=      5-min Rain = 0
KHA3 172315Z 02005KT 16/01 A3006 RMK A01 T01560014  RH  038%=      5-min Rain = 0
KHA3 172316Z 02005KT 16/01 A3006 RMK A01 T01550014  RH  038%=      5-min Rain = 0
KHA3 172317Z 02005KT 15/01 A3006 RMK A01 T01540014  RH  039%=      5-min Rain = 0
KHA3 172318Z 02005KT 15/01 A3006 RMK A01 T01540014  RH  039%=      5-min Rain = 0
KHA3 172319Z 02005KT 15/01 A3006 RMK A01 T01530014  RH  039%=      5-min Rain = 0
KHA3 172320Z 02005KT 15/01 A3006 RMK A01 T01530014  RH  039%=      5-min Rain = 0
KHA3 172321Z 02005KT 15/01 A3006 RMK A01 T01520013  RH  039%=      5-min Rain = 0
KHA3 172322Z 01005KT 15/01 A3006 RMK A01 T01510013  RH  039%=      5-min Rain = 0
KHA3 172323Z 01005KT 15/01 A3006 RMK A01 T01500013  RH  039%=      5-min Rain = 0
KHA3 172324Z 01004KT 15/01 A3006 RMK A01 T01500013  RH  040%=      5-min Rain = 0
KHA3 172325Z 01004KT 15/01 A3007 RMK A01 T01490013  RH  040%=      5-min Rain = 0
KHA3 172326Z 01004KT 15/01 A3007 RMK A01 T01480013  RH  040%=      5-min Rain = 0
KHA3 172327Z 02004KT 15/01 A3007 RMK A01 T01480013  RH  040%=      5-min Rain = 0
KHA3 172328Z 02005KT 15/01 A3007 RMK A01 T01480013  RH  040%=      5-min Rain = 0
KHA3 172329Z 02005KT 15/01 A3007 RMK A01 T01470013  RH  040%=      5-min Rain = 0
KHA3 172330Z 02005KT 15/01 A3007 RMK A01 T01470014  RH  040%=      5-min Rain = 0
KHA3 172331Z 02005KT 15/01 A3007 RMK A01 T01460013  RH  040%=      5-min Rain = 0
KHA3 172332Z 02005KT 15/01 A3007 RMK A01 T01460013  RH  041%=      5-min Rain = 0
KHA3 172333Z 02005KT 15/01 A3007 RMK A01 T01450013  RH  041%=      5-min Rain = 0
KHA3 172334Z 02004KT 15/01 A3007 RMK A01 T01450014  RH  041%=      5-min Rain = 0
KHA3 172335Z 02004KT 15/01 A3007 RMK A01 T01450014  RH  041%=      5-min Rain = 0
KHA3 172336Z 03004KT 15/01 A3007 RMK A01 T01450014  RH  041%=      5-min Rain = 0
KHA3 172337Z 03005KT 15/01 A3007 RMK A01 T01450014  RH  041%=      5-min Rain = 0
KHA3 172338Z 03004KT 15/01 A3007 RMK A01 T01450014  RH  041%=      5-min Rain = 0
KHA3 172339Z 03005KT 15/01 A3007 RMK A01 T01450013  RH  041%=      5-min Rain = 0
KHA3 172340Z 03005KT 15/01 A3007 RMK A01 T01450014  RH  041%=      5-min Rain = 0
KHA3 172341Z 03005KT 14/01 A3007 RMK A01 T01440013  RH  041%=      5-min Rain = 0
KHA3 172342Z 03004KT 14/01 A3007 RMK A01 T01440013  RH  041%=      5-min Rain = 0
KHA3 172343Z 03004KT 14/01 A3007 RMK A01 T01440013  RH  041%=      5-min Rain = 0
KHA3 172344Z 02004KT 14/01 A3007 RMK A01 T01440013  RH  041%=      5-min Rain = 0
KHA3 172345Z 03003KT 14/01 A3007 RMK A01 T01430013  RH  041%=      5-min Rain = 0
KHA3 172346Z 03003KT 14/01 A3007 RMK A01 T01420013  RH  041%=      5-min Rain = 0
KHA3 172347Z 03004KT 14/01 A3007 RMK A01 T01410012  RH  042%=      5-min Rain = 0
KHA3 172348Z 02004KT 14/01 A3007 RMK A01 T01400013  RH  042%=      5-min Rain = 0
KHA3 172349Z 02004KT 14/01 A3007 RMK A01 T01400013  RH  042%=      5-min Rain = 0
KHA3 172350Z 02004KT 14/01 A3007 RMK A01 T01400013  RH  042%=      5-min Rain = 0
KHA3 172351Z 02004KT 14/01 A3007 RMK A01 T01400013  RH  042%=      5-min Rain = 0
KHA3 172352Z 02004KT 14/01 A3007 RMK A01 T01390013  RH  042%=      5-min Rain = 0
KHA3 172353Z 02004KT 14/01 A3007 RMK A01 T01390013  RH  042%=      5-min Rain = 0
KHA3 172354Z 02005KT 14/01 A3007 RMK A01 T01390013  RH  042%=      5-min Rain = 0
KHA3 172355Z 02005KT 14/01 A3007 RMK A01 T01390013  RH  042%=      5-min Rain = 0
KHA3 172356Z 02004KT 14/01 A3007 RMK A01 T01390013  RH  042%=      5-min Rain = 0
KHA3 172357Z 02004KT 14/01 A3007 RMK A01 T01380013  RH  042%=      5-min Rain = 0
KHA3 172358Z 03004KT 14/01 A3007 RMK A01 T01390013  RH  042%=      5-min Rain = 0
KHA3 172359Z 03004KT 14/01 A3007 RMK A01 T01380013  RH  042%=      5-min Rain = 0
KHA3 180000Z 01003KT 14/01 A3007 RMK A01 T01380013  RH  042%=      5-min Rain = 0
KHA3 180001Z 35002KT 14/01 A3007 RMK A01 T01380013  RH  042%=      5-min Rain = 0
KHA3 180002Z 36002KT 14/01 A3007 RMK A01 T01380013  RH  042%=      5-min Rain = 0
KHA3 180003Z 02003KT 14/01 A3007 RMK A01 T01380013  RH  043%=      5-min Rain = 0
KHA3 180004Z 03003KT 14/01 A3007 RMK A01 T01380013  RH  043%=      5-min Rain = 0
KHA3 180005Z 03003KT 14/01 A3007 RMK A01 T01380013  RH  043%=      5-min Rain = 0
KHA3 180006Z 03003KT 14/01 A3007 RMK A01 T01380013  RH  043%=      5-min Rain = 0
KHA3 180007Z 03003KT 14/01 A3007 RMK A01 T01380013  RH  043%=      5-min Rain = 0
KHA3 180008Z 03003KT 14/01 A3007 RMK A01 T01370013  RH  043%=      5-min Rain = 0
KHA3 180009Z 02003KT 14/01 A3007 RMK A01 T01370013  RH  043%=      5-min Rain = 0
KHA3 180010Z 03003KT 14/01 A3007 RMK A01 T01380013  RH  043%=      5-min Rain = 0
KHA3 180011Z 03003KT 14/01 A3007 RMK A01 T01380013  RH  043%=      5-min Rain = 0
KHA3 180012Z 03003KT 14/01 A3007 RMK A01 T01380013  RH  043%=      5-min Rain = 0
KHA3 180013Z 02003KT 14/01 A3007 RMK A01 T01380013  RH  042%=      5-min Rain = 0
KHA3 180014Z 02003KT 14/01 A3007 RMK A01 T01380013  RH  042%=      5-min Rain = 0
KHA3 180015Z 03003KT 14/01 A3007 RMK A01 T01380013  RH  042%=      5-min Rain = 0
KHA3 180016Z 03003KT 14/01 A3007 RMK A01 T01380013  RH  042%=      5-min Rain = 0
KHA3 180017Z 02003KT 14/01 A3007 RMK A01 T01380013  RH  043%=      5-min Rain = 0
KHA3 180018Z 02003KT 14/01 A3007 RMK A01 T01380013  RH  043%=      5-min Rain = 0
KHA3 180019Z 03002KT 14/01 A3007 RMK A01 T01370013  RH  043%=      5-min Rain = 0
KHA3 180020Z 03002KT 14/01 A3007 RMK A01 T01370013  RH  043%=      5-min Rain = 0
KHA3 180021Z 03002KT 14/01 A3007 RMK A01 T01360013  RH  043%=      5-min Rain = 0
KHA3 180022Z 03003KT 14/01 A3007 RMK A01 T01360013  RH  043%=      5-min Rain = 0
KHA3 180023Z 03003KT 14/01 A3008 RMK A01 T01360013  RH  043%=      5-min Rain = 0
KHA3 180024Z 02003KT 14/01 A3008 RMK A01 T01350013  RH  043%=      5-min Rain = 0
KHA3 180025Z 03003KT 14/01 A3008 RMK A01 T01350013  RH  044%=      5-min Rain = 0
KHA3 180026Z 03003KT 14/01 A3008 RMK A01 T01350014  RH  044%=      5-min Rain = 0
KHA3 180027Z 03003KT 14/01 A3008 RMK A01 T01350014  RH  044%=      5-min Rain = 0
KHA3 180028Z 03003KT 14/01 A3008 RMK A01 T01350014  RH  044%=      5-min Rain = 0
KHA3 180029Z 03003KT 14/01 A3008 RMK A01 T01350014  RH  044%=      5-min Rain = 0
KHA3 180030Z 03003KT 14/01 A3008 RMK A01 T01350014  RH  044%=      5-min Rain = 0
KHA3 180031Z 03003KT 13/01 A3008 RMK A01 T01340014  RH  044%=      5-min Rain = 0
KHA3 180032Z 03003KT 13/01 A3008 RMK A01 T01340014  RH  044%=      5-min Rain = 0
KHA3 180033Z 03003KT 13/02 A3008 RMK A01 T01340015  RH  044%=      5-min Rain = 0
KHA3 180034Z 03003KT 13/01 A3008 RMK A01 T01330014  RH  044%=      5-min Rain = 0
KHA3 180035Z 03003KT 13/02 A3008 RMK A01 T01330015  RH  044%=      5-min Rain = 0
KHA3 180036Z 03003KT 13/01 A3008 RMK A01 T01330014  RH  044%=      5-min Rain = 0
KHA3 180037Z 03003KT 13/01 A3008 RMK A01 T01320014  RH  045%=      5-min Rain = 0
KHA3 180038Z 03003KT 13/02 A3008 RMK A01 T01320015  RH  045%=      5-min Rain = 0
KHA3 180039Z 03003KT 13/02 A3008 RMK A01 T01320015  RH  045%=      5-min Rain = 0
KHA3 180040Z 03003KT 13/01 A3008 RMK A01 T01320014  RH  045%=      5-min Rain = 0
KHA3 180041Z 03003KT 13/02 A3008 RMK A01 T01320015  RH  045%=      5-min Rain = 0
KHA3 180042Z 03002KT 13/02 A3008 RMK A01 T01320015  RH  045%=      5-min Rain = 0
KHA3 180043Z 03002KT 13/02 A3008 RMK A01 T01320015  RH  045%=      5-min Rain = 0
KHA3 180044Z 03002KT 13/02 A3008 RMK A01 T01320015  RH  045%=      5-min Rain = 0
KHA3 180045Z 03001KT 13/02 A3008 RMK A01 T01320015  RH  045%=      5-min Rain = 0
KHA3 180046Z 03001KT 13/02 A3008 RMK A01 T01320015  RH  045%=      5-min Rain = 0
KHA3 180047Z 02001KT 13/01 A3008 RMK A01 T01320014  RH  045%=      5-min Rain = 0
KHA3 180048Z 02001KT 13/02 A3008 RMK A01 T01320015  RH  045%=      5-min Rain = 0
KHA3 180049Z 03001KT 13/02 A3008 RMK A01 T01300015  RH  046%=      5-min Rain = 0
KHA3 180050Z 03001KT 13/02 A3008 RMK A01 T01260015  RH  047%=      5-min Rain = 0
KHA3 180051Z 05001KT 13/02 A3008 RMK A01 T01250015  RH  047%=      5-min Rain = 0
KHA3 180052Z 05001KT 12/02 A3008 RMK A01 T01240015  RH  047%=      5-min Rain = 0
KHA3 180053Z 05000KT 12/01 A3008 RMK A01 T01230014  RH  047%=      5-min Rain = 0
KHA3 180054Z 00000KT 12/02 A3008 RMK A01 T01230015  RH  048%=      5-min Rain = 0
KHA3 180055Z 00000KT 12/01 A3008 RMK A01 T01230014  RH  047%=      5-min Rain = 0
KHA3 180056Z 00000KT 12/01 A3008 RMK A01 T01220014  RH  048%=      5-min Rain = 0
KHA3 180057Z 00000KT 12/02 A3008 RMK A01 T01220015  RH  048%=      5-min Rain = 0
KHA3 180058Z 00000KT 12/01 A3008 RMK A01 T01220014  RH  048%=      5-min Rain = 0
KHA3 180059Z 00000KT 12/02 A3008 RMK A01 T01220015  RH  048%=      5-min Rain = 0
KHA3 180100Z 00000KT 12/02 A3008 RMK A01 T01220015  RH  048%=      5-min Rain = 0
KHA3 180101Z 00000KT 12/02 A3008 RMK A01 T01210015  RH  048%=      5-min Rain = 0
KHA3 180102Z 00000KT 12/01 A3008 RMK A01 T01210014  RH  048%=      5-min Rain = 0
KHA3 180103Z 00000KT 12/01 A3008 RMK A01 T01220014  RH  048%=      5-min Rain = 0
KHA3 180104Z 00000KT 12/01 A3008 RMK A01 T01230014  RH  048%=      5-min Rain = 0
KHA3 180105Z 00000KT 12/02 A3008 RMK A01 T01230015  RH  047%=      5-min Rain = 0
KHA3 180106Z 00000KT 12/01 A3008 RMK A01 T01220014  RH  048%=      5-min Rain = 0
KHA3 180107Z 00000KT 12/01 A3008 RMK A01 T01200014  RH  048%=      5-min Rain = 0
KHA3 180108Z 00000KT 12/01 A3008 RMK A01 T01180014  RH  049%=      5-min Rain = 0
KHA3 180109Z 00000KT 12/01 A3008 RMK A01 T01170014  RH  049%=      5-min Rain = 0
KHA3 180110Z 00000KT 12/01 A3008 RMK A01 T01170014  RH  049%=      5-min Rain = 0
KHA3 180111Z 00000KT 12/01 A3008 RMK A01 T01170014  RH  049%=      5-min Rain = 0
KHA3 180112Z 00000KT 12/01 A3008 RMK A01 T01180014  RH  049%=      5-min Rain = 0
KHA3 180113Z 00000KT 12/01 A3008 RMK A01 T01190014  RH  049%=      5-min Rain = 0
KHA3 180114Z 00000KT 12/02 A3008 RMK A01 T01210015  RH  048%=      5-min Rain = 0
KHA3 180115Z 00000KT 12/01 A3008 RMK A01 T01210014  RH  048%=      5-min Rain = 0
KHA3 180116Z 00000KT 12/01 A3008 RMK A01 T01220014  RH  048%=      5-min Rain = 0
KHA3 180117Z 00000KT 12/01 A3008 RMK A01 T01230014  RH  047%=      5-min Rain = 0
KHA3 180118Z 00000KT 12/01 A3008 RMK A01 T01230014  RH  047%=      5-min Rain = 0
KHA3 180119Z 00000KT 12/01 A3008 RMK A01 T01230014  RH  047%=      5-min Rain = 0
KHA3 180120Z 00000KT 12/01 A3008 RMK A01 T01240014  RH  047%=      5-min Rain = 0
KHA3 180121Z 00000KT 13/01 A3008 RMK A01 T01250014  RH  047%=      5-min Rain = 0
KHA3 180122Z 01000KT 13/01 A3008 RMK A01 T01250014  RH  047%=      5-min Rain = 0
KHA3 180123Z 01001KT 13/01 A3008 RMK A01 T01250014  RH  047%=      5-min Rain = 0
KHA3 180124Z 01001KT 13/01 A3008 RMK A01 T01250013  RH  047%=      5-min Rain = 0
KHA3 180125Z 01001KT 13/01 A3008 RMK A01 T01250014  RH  047%=      5-min Rain = 0
KHA3 180126Z 01000KT 13/01 A3008 RMK A01 T01250013  RH  046%=      5-min Rain = 0
KHA3 180127Z 00000KT 13/01 A3008 RMK A01 T01250013  RH  046%=      5-min Rain = 0
KHA3 180128Z 00000KT 13/01 A3008 RMK A01 T01260013  RH  046%=      5-min Rain = 0
KHA3 180129Z 00000KT 13/01 A3008 RMK A01 T01270013  RH  046%=      5-min Rain = 0
KHA3 180130Z 00000KT 13/01 A3008 RMK A01 T01270013  RH  046%=      5-min Rain = 0
KHA3 180131Z 00000KT 13/01 A3008 RMK A01 T01270014  RH  046%=      5-min Rain = 0
KHA3 180132Z 00000KT 13/01 A3008 RMK A01 T01270013  RH  046%=      5-min Rain = 0
KHA3 180133Z 00000KT 13/01 A3008 RMK A01 T01270014  RH  046%=      5-min Rain = 0
KHA3 180134Z 00000KT 13/01 A3008 RMK A01 T01250014  RH  046%=      5-min Rain = 0
KHA3 180135Z 00000KT 13/01 A3008 RMK A01 T01250014  RH  047%=      5-min Rain = 0
KHA3 180136Z 00000KT 12/01 A3008 RMK A01 T01240014  RH  047%=      5-min Rain = 0
KHA3 180137Z 00000KT 12/01 A3008 RMK A01 T01230014  RH  047%=      5-min Rain = 0
KHA3 180138Z 00000KT 12/01 A3008 RMK A01 T01220014  RH  048%=      5-min Rain = 0
KHA3 180139Z 00000KT 12/01 A3008 RMK A01 T01180014  RH  049%=      5-min Rain = 0
KHA3 180140Z 00000KT 12/01 A3008 RMK A01 T01150013  RH  050%=      5-min Rain = 0
KHA3 180141Z 00000KT 11/01 A3008 RMK A01 T01130014  RH  050%=      5-min Rain = 0
KHA3 180142Z 00000KT 11/01 A3008 RMK A01 T01130013  RH  050%=      5-min Rain = 0
KHA3 180143Z 00000KT 11/01 A3008 RMK A01 T01140014  RH  050%=      5-min Rain = 0
KHA3 180144Z 00000KT 12/01 A3008 RMK A01 T01170014  RH  049%=      5-min Rain = 0
KHA3 180145Z 00000KT 12/01 A3008 RMK A01 T01190014  RH  049%=      5-min Rain = 0
KHA3 180146Z 00000KT 12/01 A3008 RMK A01 T01200014  RH  048%=      5-min Rain = 0
KHA3 180147Z 01000KT 12/01 A3008 RMK A01 T01210014  RH  048%=      5-min Rain = 0
KHA3 180148Z 01001KT 12/01 A3008 RMK A01 T01210014  RH  048%=      5-min Rain = 0
KHA3 180149Z 01001KT 12/01 A3008 RMK A01 T01210014  RH  048%=      5-min Rain = 0
KHA3 180150Z 01001KT 12/01 A3008 RMK A01 T01210013  RH  048%=      5-min Rain = 0
KHA3 180151Z 01001KT 12/01 A3008 RMK A01 T01230014  RH  047%=      5-min Rain = 0
KHA3 180152Z 01001KT 12/01 A3008 RMK A01 T01230013  RH  047%=      5-min Rain = 0
KHA3 180153Z 01001KT 12/01 A3008 RMK A01 T01240013  RH  047%=      5-min Rain = 0
KHA3 180154Z 02001KT 12/01 A3008 RMK A01 T01230013  RH  047%=      5-min Rain = 0
KHA3 180155Z 06002KT 12/01 A3008 RMK A01 T01240013  RH  047%=      5-min Rain = 0
KHA3 180156Z 06002KT 12/01 A3008 RMK A01 T01240013  RH  047%=      5-min Rain = 0
KHA3 180157Z 07002KT 12/01 A3008 RMK A01 T01240013  RH  047%=      5-min Rain = 0
KHA3 180158Z 07001KT 13/01 A3008 RMK A01 T01250013  RH  046%=      5-min Rain = 0
KHA3 180159Z 07001KT 13/01 A3008 RMK A01 T01250013  RH  046%=      5-min Rain = 0
KHA3 180200Z 07001KT 13/01 A3008 RMK A01 T01260013  RH  046%=      5-min Rain = 0
KHA3 180201Z 07001KT 13/01 A3008 RMK A01 T01250013  RH  047%=      5-min Rain = 0
KHA3 180202Z 07000KT 12/01 A3008 RMK A01 T01210013  RH  048%=      5-min Rain = 0
KHA3 180203Z 07000KT 12/01 A3008 RMK A01 T01180013  RH  049%=      5-min Rain = 0
KHA3 180204Z 07000KT 11/01 A3008 RMK A01 T01140013  RH  050%=      5-min Rain = 0
KHA3 180205Z 07000KT 11/01 A3008 RMK A01 T01090012  RH  051%=      5-min Rain = 0
KHA3 180206Z 07001KT 10/01 A3008 RMK A01 T01040012  RH  053%=      5-min Rain = 0
KHA3 180207Z 07001KT 10/01 A3008 RMK A01 T01020013  RH  054%=      5-min Rain = 0
KHA3 180208Z 07001KT 10/01 A3008 RMK A01 T01010013  RH  054%=      5-min Rain = 0
KHA3 180209Z 07000KT 10/01 A3009 RMK A01 T01000013  RH  055%=      5-min Rain = 0
KHA3 180210Z 07000KT 10/01 A3009 RMK A01 T00980013  RH  055%=      5-min Rain = 0
KHA3 180211Z 10001KT 10/01 A3009 RMK A01 T00980013  RH  055%=      5-min Rain = 0
KHA3 180212Z 11001KT 10/01 A3009 RMK A01 T00980013  RH  056%=      5-min Rain = 0
KHA3 180213Z 11001KT 10/01 A3009 RMK A01 T00990013  RH  055%=      5-min Rain = 0
KHA3 180214Z 11001KT 10/01 A3009 RMK A01 T01010013  RH  054%=      5-min Rain = 0
KHA3 180215Z 11001KT 11/01 A3009 RMK A01 T01050014  RH  053%=      5-min Rain = 0
KHA3 180216Z 10000KT 11/01 A3009 RMK A01 T01070014  RH  052%=      5-min Rain = 0
KHA3 180217Z 00000KT 11/01 A3009 RMK A01 T01100014  RH  051%=      5-min Rain = 0
KHA3 180218Z 00000KT 11/01 A3009 RMK A01 T01130014  RH  050%=      5-min Rain = 0
KHA3 180219Z 00000KT 12/01 A3009 RMK A01 T01150014  RH  050%=      5-min Rain = 0
KHA3 180220Z 10000KT 12/01 A3009 RMK A01 T01170014  RH  049%=      5-min Rain = 0
KHA3 180221Z 10001KT 12/01 A3009 RMK A01 T01180013  RH  049%=      5-min Rain = 0
KHA3 180222Z 10001KT 12/01 A3009 RMK A01 T01180013  RH  049%=      5-min Rain = 0
KHA3 180223Z 09001KT 12/01 A3009 RMK A01 T01190013  RH  048%=      5-min Rain = 0
KHA3 180224Z 09001KT 12/01 A3009 RMK A01 T01200013  RH  048%=      5-min Rain = 0
KHA3 180225Z 09001KT 12/01 A3009 RMK A01 T01210013  RH  047%=      5-min Rain = 0
KHA3 180226Z 08001KT 12/01 A3009 RMK A01 T01220013  RH  047%=      5-min Rain = 0
KHA3 180227Z 08001KT 12/01 A3009 RMK A01 T01230013  RH  047%=      5-min Rain = 0
KHA3 180228Z 08001KT 13/01 A3009 RMK A01 T01250012  RH  046%=      5-min Rain = 0
KHA3 180229Z 08001KT 13/01 A3009 RMK A01 T01260012  RH  046%=      5-min Rain = 0
KHA3 180230Z 08001KT 13/01 A3009 RMK A01 T01260012  RH  046%=      5-min Rain = 0
KHA3 180231Z 08001KT 13/01 A3009 RMK A01 T01270012  RH  046%=      5-min Rain = 0
KHA3 180232Z 08001KT 13/01 A3009 RMK A01 T01270012  RH  046%=      5-min Rain = 0
KHA3 180233Z 08001KT 13/01 A3009 RMK A01 T01270012  RH  045%=      5-min Rain = 0
KHA3 180234Z 08001KT 13/01 A3009 RMK A01 T01270012  RH  045%=      5-min Rain = 0
KHA3 180235Z 08001KT 13/01 A3009 RMK A01 T01270011  RH  045%=      5-min Rain = 0
KHA3 180236Z 08001KT 13/01 A3009 RMK A01 T01270011  RH  045%=      5-min Rain = 0
KHA3 180237Z 08001KT 13/01 A3009 RMK A01 T01280012  RH  045%=      5-min Rain = 0
KHA3 180238Z 08001KT 13/01 A3009 RMK A01 T01280011  RH  045%=      5-min Rain = 0
KHA3 180239Z 08001KT 13/01 A3009 RMK A01 T01290012  RH  045%=      5-min Rain = 0
KHA3 180240Z 07001KT 13/01 A3009 RMK A01 T01290012  RH  045%=      5-min Rain = 0
KHA3 180241Z 06001KT 13/01 A3009 RMK A01 T01290011  RH  045%=      5-min Rain = 0
KHA3 180242Z 05001KT 13/01 A3009 RMK A01 T01290011  RH  045%=      5-min Rain = 0
KHA3 180243Z 05000KT 13/01 A3009 RMK A01 T01280011  RH  045%=      5-min Rain = 0
KHA3 180244Z 00000KT 13/01 A3009 RMK A01 T01270011  RH  045%=      5-min Rain = 0
KHA3 180245Z 00000KT 13/01 A3009 RMK A01 T01250011  RH  046%=      5-min Rain = 0
KHA3 180246Z 00000KT 12/01 A3009 RMK A01 T01230011  RH  046%=      5-min Rain = 0
KHA3 180247Z 00000KT 12/01 A3009 RMK A01 T01220011  RH  047%=      5-min Rain = 0
KHA3 180248Z 00000KT 12/01 A3009 RMK A01 T01200011  RH  047%=      5-min Rain = 0
KHA3 180249Z 00000KT 12/01 A3009 RMK A01 T01160011  RH  048%=      5-min Rain = 0
KHA3 180250Z 27000KT 11/01 A3009 RMK A01 T01100011  RH  050%=      5-min Rain = 0
KHA3 180251Z 27002KT 10/01 A3009 RMK A01 T01040010  RH  052%=      5-min Rain = 0
KHA3 180252Z 27002KT 10/01 A3009 RMK A01 T01020011  RH  053%=      5-min Rain = 0
KHA3 180253Z 26002KT 10/01 A3009 RMK A01 T01020011  RH  053%=      5-min Rain = 0
KHA3 180254Z 26002KT 11/01 A3009 RMK A01 T01050011  RH  052%=      5-min Rain = 0
KHA3 180255Z 26002KT 11/01 A3009 RMK A01 T01060011  RH  052%=      5-min Rain = 0
KHA3 180256Z 26002KT 11/01 A3009 RMK A01 T01050011  RH  052%=      5-min Rain = 0
KHA3 180257Z 26002KT 11/01 A3009 RMK A01 T01050011  RH  052%=      5-min Rain = 0
KHA3 180258Z 26002KT 11/01 A3009 RMK A01 T01050012  RH  052%=      5-min Rain = 0
KHA3 180259Z 26003KT 10/01 A3009 RMK A01 T01040011  RH  052%=      5-min Rain = 0
KHA3 180300Z 26003KT 11/01 A3009 RMK A01 T01050011  RH  052%=      5-min Rain = 0
KHA3 180301Z 26003KT 11/01 A3009 RMK A01 T01080012  RH  051%=      5-min Rain = 0
KHA3 180302Z 26003KT 11/01 A3009 RMK A01 T01090012  RH  051%=      5-min Rain = 0
KHA3 180303Z 26003KT 11/01 A301 RMK A01 T01100012  RH  051%=      5-min Rain = 0
KHA3 180304Z 26003KT 11/01 A301 RMK A01 T01100011  RH  050%=      5-min Rain = 0
KHA3 180305Z 26003KT 11/01 A301 RMK A01 T01110012  RH  050%=      5-min Rain = 0
KHA3 180306Z 26003KT 11/01 A301 RMK A01 T01110011  RH  050%=      5-min Rain = 0
KHA3 180307Z 26003KT 11/01 A301 RMK A01 T01110011  RH  050%=      5-min Rain = 0
KHA3 180308Z 26003KT 11/01 A301 RMK A01 T01110012  RH  050%=      5-min Rain = 0
KHA3 180309Z 26003KT 11/01 A301 RMK A01 T01090011  RH  051%=      5-min Rain = 0
KHA3 180310Z 26004KT 11/01 A301 RMK A01 T01070011  RH  051%=      5-min Rain = 0
KHA3 180311Z 25004KT 11/01 A301 RMK A01 T01050011  RH  052%=      5-min Rain = 0
KHA3 180312Z 25004KT 10/01 A301 RMK A01 T01040011  RH  052%=      5-min Rain = 0
KHA3 180313Z 25004KT 10/01 A3009 RMK A01 T01030011  RH  053%=      5-min Rain = 0
KHA3 180314Z 24004KT 10/01 A3009 RMK A01 T01010011  RH  053%=      5-min Rain = 0
KHA3 180315Z 23004KT 10/01 A3009 RMK A01 T00990010  RH  054%=      5-min Rain = 0
KHA3 180316Z 23004KT 10/01 A3009 RMK A01 T00960010  RH  055%=      5-min Rain = 0
KHA3 180317Z 23003KT 09/01 A3009 RMK A01 T00940010  RH  056%=      5-min Rain = 0
KHA3 180318Z 23004KT 09/01 A3009 RMK A01 T00930010  RH  056%=      5-min Rain = 0
KHA3 180319Z 23003KT 09/01 A3009 RMK A01 T00940011  RH  056%=      5-min Rain = 0
KHA3 180320Z 23003KT 09/01 A3009 RMK A01 T00940011  RH  056%=      5-min Rain = 0
KHA3 180321Z 23003KT 10/01 A3009 RMK A01 T00970011  RH  055%=      5-min Rain = 0
KHA3 180322Z 23003KT 10/01 A3009 RMK A01 T00970012  RH  055%=      5-min Rain = 0
KHA3 180323Z 23003KT 10/01 A3009 RMK A01 T00950011  RH  056%=      5-min Rain = 0
KHA3 180324Z 23003KT 09/01 A3009 RMK A01 T00930011  RH  056%=      5-min Rain = 0
KHA3 180325Z 22003KT 09/01 A3009 RMK A01 T00930011  RH  056%=      5-min Rain = 0
KHA3 180326Z 22003KT 09/01 A3009 RMK A01 T00930011  RH  056%=      5-min Rain = 0
KHA3 180327Z 22004KT 09/01 A3009 RMK A01 T00940011  RH  056%=      5-min Rain = 0
KHA3 180328Z 22004KT 10/01 A3009 RMK A01 T00960011  RH  055%=      5-min Rain = 0
KHA3 180329Z 23005KT 10/01 A3009 RMK A01 T00970011  RH  055%=      5-min Rain = 0
KHA3 180330Z 22005KT 10/01 A3009 RMK A01 T00980011  RH  054%=      5-min Rain = 0
KHA3 180331Z 23005KT 10/01 A3009 RMK A01 T00990011  RH  054%=      5-min Rain = 0
KHA3 180332Z 22004KT 10/01 A3009 RMK A01 T00980011  RH  054%=      5-min Rain = 0
KHA3 180333Z 22003KT 10/01 A3009 RMK A01 T00960011  RH  055%=      5-min Rain = 0
KHA3 180334Z 22004KT 09/01 A3009 RMK A01 T00940010  RH  056%=      5-min Rain = 0
KHA3 180335Z 22004KT 09/01 A3009 RMK A01 T00930010  RH  056%=      5-min Rain = 0
KHA3 180336Z 22004KT 09/01 A3009 RMK A01 T00920010  RH  056%=      5-min Rain = 0
KHA3 180337Z 22004KT 09/01 A3009 RMK A01 T00920010  RH  056%=      5-min Rain = 0
KHA3 180338Z 22005KT 09/01 A3009 RMK A01 T00920009  RH  056%=      5-min Rain = 0
KHA3 180339Z 22005KT 09/01 A3009 RMK A01 T00930009  RH  056%=      5-min Rain = 0
KHA3 180340Z 22005KT 09/01 A3009 RMK A01 T00930009  RH  056%=      5-min Rain = 0
KHA3 180341Z 22005KT 09/01 A3009 RMK A01 T00920009  RH  056%=      5-min Rain = 0
KHA3 180342Z 22004KT 09/01 A3009 RMK A01 T00890009  RH  057%=      5-min Rain = 0
KHA3 180343Z 22004KT 09/01 A3009 RMK A01 T00850009  RH  059%=      5-min Rain = 0
KHA3 180344Z 22004KT 08/01 A3009 RMK A01 T00840008  RH  059%=      5-min Rain = 0
KHA3 180345Z 21004KT 09/01 A3009 RMK A01 T00850008  RH  059%=      5-min Rain = 0
KHA3 180346Z 22004KT 09/01 A3008 RMK A01 T00870009  RH  058%=      5-min Rain = 0
KHA3 180347Z 22004KT 09/01 A3008 RMK A01 T00880010  RH  058%=      5-min Rain = 0
KHA3 180348Z 22004KT 09/01 A3008 RMK A01 T00880010  RH  058%=      5-min Rain = 0
KHA3 180349Z 22004KT 09/01 A3008 RMK A01 T00870009  RH  058%=      5-min Rain = 0
KHA3 180350Z 22004KT 09/01 A3008 RMK A01 T00860010  RH  059%=      5-min Rain = 0
KHA3 180351Z 21004KT 09/01 A3008 RMK A01 T00860010  RH  059%=      5-min Rain = 0
KHA3 180352Z 21005KT 09/01 A3008 RMK A01 T00860010  RH  059%=      5-min Rain = 0
KHA3 180353Z 22005KT 09/01 A3008 RMK A01 T00860010  RH  059%=      5-min Rain = 0
KHA3 180354Z 22005KT 09/01 A3008 RMK A01 T00860010  RH  059%=      5-min Rain = 0
KHA3 180355Z 22005KT 09/01 A3008 RMK A01 T00850010  RH  059%=      5-min Rain = 0
KHA3 180356Z 22005KT 08/01 A3008 RMK A01 T00840009  RH  059%=      5-min Rain = 0
KHA3 180357Z 22005KT 08/01 A3008 RMK A01 T00830009  RH  060%=      5-min Rain = 0
KHA3 180358Z 22005KT 08/01 A3008 RMK A01 T00810009  RH  060%=      5-min Rain = 0
KHA3 180359Z 23005KT 08/01 A3009 RMK A01 T00800009  RH  061%=      5-min Rain = 0
KHA3 180400Z 23005KT 08/01 A3009 RMK A01 T00800009  RH  061%=      5-min Rain = 0
KHA3 180401Z 23005KT 08/01 A3009 RMK A01 T00800009  RH  061%=      5-min Rain = 0
KHA3 180402Z 23005KT 08/01 A3009 RMK A01 T00810010  RH  061%=      5-min Rain = 0
KHA3 180403Z 23005KT 08/01 A3009 RMK A01 T00810010  RH  061%=      5-min Rain = 0
KHA3 180404Z 24005KT 08/01 A3009 RMK A01 T00810011  RH  061%=      5-min Rain = 0
KHA3 180405Z 24005KT 08/01 A3009 RMK A01 T00800011  RH  062%=      5-min Rain = 0
KHA3 180406Z 23005KT 08/01 A3009 RMK A01 T00800011  RH  062%=      5-min Rain = 0
KHA3 180407Z 23004KT 08/01 A3009 RMK A01 T00790012  RH  062%=      5-min Rain = 0
KHA3 180408Z 23004KT 08/01 A3009 RMK A01 T00790012  RH  062%=      5-min Rain = 0
KHA3 180409Z 22004KT 08/01 A3008 RMK A01 T00790012  RH  063%=      5-min Rain = 0
KHA3 180410Z 22004KT 08/01 A3008 RMK A01 T00790012  RH  063%=      5-min Rain = 0
KHA3 180411Z 22004KT 08/01 A3008 RMK A01 T00780012  RH  063%=      5-min Rain = 0
KHA3 180412Z 22004KT 08/01 A3008 RMK A01 T00780012  RH  063%=      5-min Rain = 0
KHA3 180413Z 23004KT 08/01 A3008 RMK A01 T00790012  RH  063%=      5-min Rain = 0
KHA3 180414Z 23004KT 08/01 A3009 RMK A01 T00800012  RH  062%=      5-min Rain = 0
KHA3 180415Z 23004KT 08/01 A3009 RMK A01 T00800012  RH  062%=      5-min Rain = 0
KHA3 180416Z 23004KT 08/01 A3008 RMK A01 T00800012  RH  062%=      5-min Rain = 0
KHA3 180417Z 23004KT 08/01 A3008 RMK A01 T00800012  RH  062%=      5-min Rain = 0
KHA3 180418Z 23005KT 08/01 A3008 RMK A01 T00800011  RH  062%=      5-min Rain = 0
KHA3 180419Z 23005KT 08/01 A3008 RMK A01 T00790011  RH  062%=      5-min Rain = 0
KHA3 180420Z 22004KT 08/01 A3008 RMK A01 T00780011  RH  063%=      5-min Rain = 0
KHA3 180421Z 22005KT 08/01 A3008 RMK A01 T00780011  RH  063%=      5-min Rain = 0
KHA3 180422Z 22004KT 08/01 A3008 RMK A01 T00790011  RH  062%=      5-min Rain = 0
KHA3 180423Z 22004KT 08/01 A3008 RMK A01 T00800012  RH  062%=      5-min Rain = 0
KHA3 180424Z 23004KT 08/01 A3008 RMK A01 T00800012  RH  062%=      5-min Rain = 0
KHA3 180425Z 23004KT 08/01 A3008 RMK A01 T00810012  RH  062%=      5-min Rain = 0
KHA3 180426Z 23004KT 08/01 A3008 RMK A01 T00810012  RH  061%=      5-min Rain = 0
KHA3 180427Z 23004KT 08/01 A3008 RMK A01 T00810011  RH  061%=      5-min Rain = 0
KHA3 180428Z 23004KT 08/01 A3008 RMK A01 T00820011  RH  061%=      5-min Rain = 0
KHA3 180429Z 23004KT 08/01 A3008 RMK A01 T00820011  RH  061%=      5-min Rain = 0
KHA3 180430Z 23004KT 08/01 A3008 RMK A01 T00810011  RH  061%=      5-min Rain = 0
KHA3 180431Z 22004KT 08/01 A3008 RMK A01 T00800011  RH  062%=      5-min Rain = 0
KHA3 180432Z 22004KT 08/01 A3008 RMK A01 T00780011  RH  062%=      5-min Rain = 0
KHA3 180433Z 22004KT 08/01 A3008 RMK A01 T00770011  RH  063%=      5-min Rain = 0
KHA3 180434Z 22004KT 08/01 A3008 RMK A01 T00770012  RH  063%=      5-min Rain = 0
KHA3 180435Z 23004KT 08/01 A3008 RMK A01 T00790011  RH  062%=      5-min Rain = 0
KHA3 180436Z 23005KT 08/01 A3008 RMK A01 T00820011  RH  061%=      5-min Rain = 0
KHA3 180437Z 23005KT 08/01 A3008 RMK A01 T00840012  RH  060%=      5-min Rain = 0
KHA3 180438Z 23005KT 09/01 A3007 RMK A01 T00850011  RH  060%=      5-min Rain = 0
KHA3 180439Z 24004KT 09/01 A3007 RMK A01 T00850011  RH  060%=      5-min Rain = 0
KHA3 180440Z 24004KT 08/01 A3007 RMK A01 T00830011  RH  060%=      5-min Rain = 0
KHA3 180441Z 24005KT 08/01 A3007 RMK A01 T00820011  RH  061%=      5-min Rain = 0
KHA3 180442Z 23005KT 08/01 A3007 RMK A01 T00800010  RH  062%=      5-min Rain = 0
KHA3 180443Z 23005KT 08/01 A3007 RMK A01 T00780011  RH  062%=      5-min Rain = 0
KHA3 180444Z 23005KT 08/01 A3007 RMK A01 T00780011  RH  063%=      5-min Rain = 0
KHA3 180445Z 23004KT 08/01 A3007 RMK A01 T00770011  RH  063%=      5-min Rain = 0
KHA3 180446Z 23005KT 08/01 A3007 RMK A01 T00770011  RH  063%=      5-min Rain = 0
KHA3 180447Z 23005KT 08/01 A3007 RMK A01 T00760011  RH  063%=      5-min Rain = 0
KHA3 180448Z 23005KT 08/01 A3007 RMK A01 T00750011  RH  064%=      5-min Rain = 0
KHA3 180449Z 23005KT 08/01 A3007 RMK A01 T00750011  RH  064%=      5-min Rain = 0
KHA3 180450Z 23005KT 07/01 A3007 RMK A01 T00740011  RH  064%=      5-min Rain = 0
KHA3 180451Z 22005KT 07/01 A3007 RMK A01 T00740011  RH  064%=      5-min Rain = 0
KHA3 180452Z 23005KT 08/01 A3007 RMK A01 T00750011  RH  064%=      5-min Rain = 0
KHA3 180453Z 23005KT 08/01 A3007 RMK A01 T00750011  RH  064%=      5-min Rain = 0
KHA3 180454Z 23005KT 08/01 A3007 RMK A01 T00750011  RH  064%=      5-min Rain = 0
KHA3 180455Z 23005KT 08/01 A3007 RMK A01 T00760011  RH  064%=      5-min Rain = 0
KHA3 180456Z 23004KT 08/01 A3007 RMK A01 T00760010  RH  063%=      5-min Rain = 0
KHA3 180457Z 23004KT 08/01 A3007 RMK A01 T00760010  RH  063%=      5-min Rain = 0
KHA3 180458Z 23004KT 08/01 A3007 RMK A01 T00760011  RH  063%=      5-min Rain = 0
KHA3 180459Z 23005KT 08/01 A3007 RMK A01 T00750011  RH  064%=      5-min Rain = 0
KHA3 180500Z 23005KT 07/01 A3007 RMK A01 T00730011  RH  064%=      5-min Rain = 0
KHA3 180501Z 23005KT 07/01 A3007 RMK A01 T00730011  RH  065%=      5-min Rain = 0
KHA3 180502Z 23005KT 07/01 A3007 RMK A01 T00720011  RH  065%=      5-min Rain = 0
KHA3 180503Z 22005KT 07/01 A3007 RMK A01 T00720011  RH  065%=      5-min Rain = 0
KHA3 180504Z 23005KT 07/01 A3007 RMK A01 T00730011  RH  065%=      5-min Rain = 0
KHA3 180505Z 22004KT 07/01 A3007 RMK A01 T00740011  RH  064%=      5-min Rain = 0
KHA3 180506Z 22005KT 07/01 A3007 RMK A01 T00740011  RH  064%=      5-min Rain = 0
KHA3 180507Z 22005KT 08/01 A3007 RMK A01 T00750011  RH  064%=      5-min Rain = 0
KHA3 180508Z 22005KT 08/01 A3007 RMK A01 T00760010  RH  063%=      5-min Rain = 0
KHA3 180509Z 22005KT 08/01 A3007 RMK A01 T00770010  RH  063%=      5-min Rain = 0
KHA3 180510Z 22005KT 08/01 A3007 RMK A01 T00770010  RH  063%=      5-min Rain = 0
KHA3 180511Z 22005KT 08/01 A3006 RMK A01 T00770010  RH  062%=      5-min Rain = 0
KHA3 180512Z 23004KT 08/01 A3006 RMK A01 T00780010  RH  062%=      5-min Rain = 0
KHA3 180513Z 23004KT 08/01 A3006 RMK A01 T00780010  RH  062%=      5-min Rain = 0
KHA3 180514Z 23004KT 08/01 A3006 RMK A01 T00790010  RH  062%=      5-min Rain = 0
KHA3 180515Z 23004KT 08/01 A3006 RMK A01 T00790010  RH  062%=      5-min Rain = 0
KHA3 180516Z 24004KT 08/01 A3006 RMK A01 T00790010  RH  062%=      5-min Rain = 0
KHA3 180517Z 24004KT 08/01 A3006 RMK A01 T00790010  RH  061%=      5-min Rain = 0
KHA3 180518Z 24004KT 08/01 A3006 RMK A01 T00790010  RH  062%=      5-min Rain = 0
KHA3 180519Z 24004KT 08/01 A3006 RMK A01 T00790010  RH  062%=      5-min Rain = 0
KHA3 180520Z 24004KT 08/01 A3006 RMK A01 T00780010  RH  062%=      5-min Rain = 0
KHA3 180521Z 24004KT 08/01 A3006 RMK A01 T00780010  RH  062%=      5-min Rain = 0
KHA3 180522Z 24004KT 08/01 A3005 RMK A01 T00770010  RH  062%=      5-min Rain = 0
KHA3 180523Z 24004KT 08/01 A3005 RMK A01 T00770010  RH  062%=      5-min Rain = 0
KHA3 180524Z 24004KT 08/01 A3005 RMK A01 T00770010  RH  063%=      5-min Rain = 0
KHA3 180525Z 25004KT 08/01 A3005 RMK A01 T00770010  RH  063%=      5-min Rain = 0
KHA3 180526Z 25004KT 08/01 A3005 RMK A01 T00770010  RH  063%=      5-min Rain = 0
KHA3 180527Z 25004KT 08/01 A3005 RMK A01 T00770010  RH  062%=      5-min Rain = 0
KHA3 180528Z 25004KT 08/01 A3005 RMK A01 T00780010  RH  062%=      5-min Rain = 0
KHA3 180529Z 25004KT 08/01 A3005 RMK A01 T00790010  RH  062%=      5-min Rain = 0
KHA3 180530Z 24003KT 08/01 A3005 RMK A01 T00800010  RH  061%=      5-min Rain = 0
KHA3 180531Z 23003KT 08/01 A3005 RMK A01 T00810010  RH  061%=      5-min Rain = 0
KHA3 180532Z 23003KT 08/01 A3005 RMK A01 T00810010  RH  061%=      5-min Rain = 0
KHA3 180533Z 22003KT 08/01 A3005 RMK A01 T00800010  RH  061%=      5-min Rain = 0
KHA3 180534Z 22003KT 08/01 A3005 RMK A01 T00770009  RH  062%=      5-min Rain = 0
KHA3 180535Z 21004KT 08/01 A3004 RMK A01 T00750010  RH  063%=      5-min Rain = 0
KHA3 180536Z 21004KT 07/01 A3004 RMK A01 T00720009  RH  064%=      5-min Rain = 0
KHA3 180537Z 21004KT 07/01 A3004 RMK A01 T00700009  RH  065%=      5-min Rain = 0
KHA3 180538Z 21004KT 07/01 A3004 RMK A01 T00680010  RH  066%=      5-min Rain = 0
KHA3 180539Z 21004KT 07/01 A3004 RMK A01 T00670010  RH  067%=      5-min Rain = 0
KHA3 180540Z 21004KT 07/01 A3004 RMK A01 T00680011  RH  067%=      5-min Rain = 0
KHA3 180541Z 20004KT 07/01 A3004 RMK A01 T00690011  RH  067%=      5-min Rain = 0
KHA3 180542Z 20005KT 07/01 A3004 RMK A01 T00690012  RH  067%=      5-min Rain = 0
KHA3 180543Z 20005KT 07/01 A3004 RMK A01 T00680010  RH  067%=      5-min Rain = 0
KHA3 180544Z 20005KT 07/01 A3004 RMK A01 T00660010  RH  067%=      5-min Rain = 0
KHA3 180545Z 20005KT 07/01 A3004 RMK A01 T00650010  RH  068%=      5-min Rain = 0
KHA3 180546Z 20005KT 07/01 A3004 RMK A01 T00660010  RH  068%=      5-min Rain = 0
KHA3 180547Z 20006KT 07/01 A3004 RMK A01 T00660010  RH  068%=      5-min Rain = 0
KHA3 180548Z 19006KT 07/01 A3004 RMK A01 T00650010  RH  068%=      5-min Rain = 0
KHA3 180549Z 19006KT 07/01 A3004 RMK A01 T00650010  RH  068%=      5-min Rain = 0
KHA3 180550Z 19006KT 07/01 A3004 RMK A01 T00650010  RH  068%=      5-min Rain = 0
KHA3 180551Z 19007KT 06/01 A3004 RMK A01 T00640011  RH  069%=      5-min Rain = 0
KHA3 180552Z 19006KT 06/01 A3004 RMK A01 T00640011  RH  069%=      5-min Rain = 0
KHA3 180553Z 19007KT 06/01 A3004 RMK A01 T00640011  RH  069%=      5-min Rain = 0
KHA3 180554Z 19006KT 06/01 A3004 RMK A01 T00630011  RH  069%=      5-min Rain = 0
KHA3 180555Z 19006KT 06/01 A3004 RMK A01 T00630011  RH  069%=      5-min Rain = 0
KHA3 180556Z 19005KT 06/01 A3004 RMK A01 T00630010  RH  069%=      5-min Rain = 0
KHA3 180557Z 19005KT 06/01 A3003 RMK A01 T00630010  RH  069%=      5-min Rain = 0
KHA3 180558Z 18005KT 06/01 A3003 RMK A01 T00640010  RH  068%=      5-min Rain = 0
KHA3 180559Z 18006KT 07/01 A3003 RMK A01 T00650011  RH  068%=      5-min Rain = 0

Page generated in 0.0722 seconds.